Observation data for Wall on 04/23/2019      Previous  Date  Next       Current Mesonet Observations  Soil Data  Daily Summary Page  Observations in Plain Language
KWA1 230500Z 14011KT 20/14 A2998 RMK A01 T02030141  RH  068%=      5-min Rain = 0
KWA1 230501Z 14011KT 21/14 A2998 RMK A01 T02050143  RH  068%=      5-min Rain = 0
KWA1 230502Z 14011KT 21/14 A2998 RMK A01 T02060144  RH  067%=      5-min Rain = 0
KWA1 230503Z 14012KT 21/14 A2998 RMK A01 T02060144  RH  067%=      5-min Rain = 0
KWA1 230504Z 14011KT 21/14 A2998 RMK A01 T02070144  RH  067%=      5-min Rain = 0
KWA1 230505Z 14012KT 21/14 A2998 RMK A01 T02080144  RH  067%=      5-min Rain = 0
KWA1 230506Z 14011KT 21/14 A2998 RMK A01 T02080144  RH  067%=      5-min Rain = 0
KWA1 230507Z 15011KT 21/14 A2998 RMK A01 T02070144  RH  067%=      5-min Rain = 0
KWA1 230508Z 15012KT 21/14 A2998 RMK A01 T02070144  RH  067%=      5-min Rain = 0
KWA1 230509Z 14012KT 21/15 A2998 RMK A01 T02060145  RH  068%=      5-min Rain = 0
KWA1 230510Z 14013KT 21/15 A2998 RMK A01 T02060145  RH  068%=      5-min Rain = 0
KWA1 230511Z 15012KT 21/15 A2998 RMK A01 T02060145  RH  068%=      5-min Rain = 0
KWA1 230512Z 14012KT 21/15 A2998 RMK A01 T02060145  RH  068%=      5-min Rain = 0
KWA1 230513Z 15012KT 21/15 A2998 RMK A01 T02060146  RH  068%=      5-min Rain = 0
KWA1 230514Z 15012KT 21/15 A2998 RMK A01 T02060145  RH  068%=      5-min Rain = 0
KWA1 230515Z 15013KT 21/15 A2998 RMK A01 T02060146  RH  068%=      5-min Rain = 0
KWA1 230516Z 15013KT 21/15 A2998 RMK A01 T02050146  RH  069%=      5-min Rain = 0
KWA1 230517Z 15012KT 21/15 A2998 RMK A01 T02050146  RH  069%=      5-min Rain = 0
KWA1 230518Z 15013KT 21/15 A2998 RMK A01 T02050146  RH  069%=      5-min Rain = 0
KWA1 230519Z 15011KT 21/15 A2998 RMK A01 T02050146  RH  069%=      5-min Rain = 0
KWA1 230520Z 14012KT 21/15 A2998 RMK A01 T02050146  RH  069%=      5-min Rain = 0
KWA1 230521Z 15014KT 20/15 A2998 RMK A01 T02040146  RH  069%=      5-min Rain = 0
KWA1 230522Z 15012KT 21/15 A2998 RMK A01 T02050146  RH  069%=      5-min Rain = 0
KWA1 230523Z 15011KT 21/15 A2998 RMK A01 T02050146  RH  069%=      5-min Rain = 0
KWA1 230524Z 15012KT 20/15 A2998 RMK A01 T02040145  RH  069%=      5-min Rain = 0
KWA1 230525Z 14013KT 20/15 A2998 RMK A01 T02040146  RH  069%=      5-min Rain = 0
KWA1 230526Z 15014KT 21/15 A2997 RMK A01 T02050146  RH  069%=      5-min Rain = 0
KWA1 230527Z 15015KT 21/15 A2997 RMK A01 T02060146  RH  069%=      5-min Rain = 0
KWA1 230528Z 15013KT 21/15 A2997 RMK A01 T02050146  RH  069%=      5-min Rain = 0
KWA1 230529Z 15013KT 21/15 A2997 RMK A01 T02050146  RH  069%=      5-min Rain = 0
KWA1 230530Z 15014KT 21/15 A2997 RMK A01 T02050146  RH  069%=      5-min Rain = 0
KWA1 230531Z 14013KT 21/15 A2997 RMK A01 T02050146  RH  069%=      5-min Rain = 0
KWA1 230532Z 15015KT 21/15 A2997 RMK A01 T02050147  RH  069%=      5-min Rain = 0
KWA1 230533Z 15014KT 21/15 A2997 RMK A01 T02050146  RH  069%=      5-min Rain = 0
KWA1 230534Z 15013KT 20/15 A2997 RMK A01 T02040146  RH  069%=      5-min Rain = 0
KWA1 230535Z 15013KT 20/15 A2997 RMK A01 T02040146  RH  070%=      5-min Rain = 0
KWA1 230536Z 15014KT 20/15 A2997 RMK A01 T02030146  RH  070%=      5-min Rain = 0
KWA1 230537Z 15014KT 20/15 A2997 RMK A01 T02030146  RH  070%=      5-min Rain = 0
KWA1 230538Z 14014KT 20/15 A2997 RMK A01 T02030146  RH  070%=      5-min Rain = 0
KWA1 230539Z 15013KT 20/15 A2997 RMK A01 T02030146  RH  070%=      5-min Rain = 0
KWA1 230540Z 15012KT 20/15 A2997 RMK A01 T02030146  RH  070%=      5-min Rain = 0
KWA1 230541Z 15012KT 20/15 A2997 RMK A01 T02030146  RH  070%=      5-min Rain = 0
KWA1 230542Z 14011KT 20/15 A2997 RMK A01 T02030146  RH  070%=      5-min Rain = 0
KWA1 230543Z 15012KT 20/15 A2997 RMK A01 T02020146  RH  070%=      5-min Rain = 0
KWA1 230544Z 15011KT 20/15 A2997 RMK A01 T02020146  RH  070%=      5-min Rain = 0
KWA1 230545Z 14011KT 20/15 A2997 RMK A01 T02020146  RH  070%=      5-min Rain = 0
KWA1 230546Z 15011KT 20/15 A2997 RMK A01 T02020146  RH  070%=      5-min Rain = 0
KWA1 230547Z 15011KT 20/15 A2997 RMK A01 T02020146  RH  070%=      5-min Rain = 0
KWA1 230548Z 14010KT 20/15 A2997 RMK A01 T02020146  RH  070%=      5-min Rain = 0
KWA1 230549Z 14010KT 20/15 A2997 RMK A01 T02020146  RH  070%=      5-min Rain = 0
KWA1 230550Z 14010KT 20/15 A2997 RMK A01 T02020146  RH  071%=      5-min Rain = 0
KWA1 230551Z 14008KT 20/15 A2997 RMK A01 T02020147  RH  071%=      5-min Rain = 0
KWA1 230552Z 14008KT 20/15 A2997 RMK A01 T02010146  RH  070%=      5-min Rain = 0
KWA1 230553Z 14009KT 20/15 A2997 RMK A01 T02010146  RH  071%=      5-min Rain = 0
KWA1 230554Z 14008KT 20/15 A2997 RMK A01 T02010146  RH  071%=      5-min Rain = 0
KWA1 230555Z 14008KT 20/15 A2997 RMK A01 T02000146  RH  071%=      5-min Rain = 0
KWA1 230556Z 13008KT 20/15 A2997 RMK A01 T02000145  RH  071%=      5-min Rain = 0
KWA1 230557Z 13007KT 20/14 A2997 RMK A01 T01990144  RH  071%=      5-min Rain = 0
KWA1 230558Z 13007KT 20/14 A2997 RMK A01 T01980144  RH  071%=      5-min Rain = 0
KWA1 230559Z 13007KT 20/14 A2997 RMK A01 T01960143  RH  071%=      5-min Rain = 0
KWA1 230600Z 13008KT 20/14 A2997 RMK A01 T01950143  RH  072%=      5-min Rain = 0
KWA1 230601Z 13008KT 19/14 A2997 RMK A01 T01940143  RH  072%=      5-min Rain = 0
KWA1 230602Z 13008KT 19/14 A2997 RMK A01 T01940143  RH  072%=      5-min Rain = 0
KWA1 230603Z 13008KT 19/14 A2997 RMK A01 T01930143  RH  073%=      5-min Rain = 0
KWA1 230604Z 14010KT 19/14 A2997 RMK A01 T01940144  RH  073%=      5-min Rain = 0
KWA1 230605Z 14009KT 19/14 A2997 RMK A01 T01940144  RH  073%=      5-min Rain = 0
KWA1 230606Z 14009KT 20/15 A2997 RMK A01 T01950145  RH  073%=      5-min Rain = 0
KWA1 230607Z 13009KT 20/14 A2997 RMK A01 T01950144  RH  073%=      5-min Rain = 0
KWA1 230608Z 14010KT 20/15 A2997 RMK A01 T01950145  RH  073%=      5-min Rain = 0
KWA1 230609Z 14009KT 20/15 A2997 RMK A01 T01950145  RH  073%=      5-min Rain = 0
KWA1 230610Z 14010KT 20/15 A2997 RMK A01 T01950145  RH  073%=      5-min Rain = 0
KWA1 230611Z 14010KT 20/15 A2997 RMK A01 T01950145  RH  073%=      5-min Rain = 0
KWA1 230612Z 14011KT 20/15 A2997 RMK A01 T01950146  RH  073%=      5-min Rain = 0
KWA1 230613Z 14011KT 20/15 A2997 RMK A01 T01960146  RH  073%=      5-min Rain = 0
KWA1 230614Z 14010KT 20/15 A2997 RMK A01 T01960146  RH  073%=      5-min Rain = 0
KWA1 230615Z 14012KT 20/15 A2997 RMK A01 T01960146  RH  073%=      5-min Rain = 0
KWA1 230616Z 14011KT 20/15 A2997 RMK A01 T01960147  RH  073%=      5-min Rain = 0
KWA1 230617Z 14011KT 20/15 A2997 RMK A01 T01960147  RH  073%=      5-min Rain = 0
KWA1 230618Z 13011KT 20/15 A2997 RMK A01 T01960146  RH  073%=      5-min Rain = 0
KWA1 230619Z 14011KT 20/15 A2997 RMK A01 T01960146  RH  073%=      5-min Rain = 0
KWA1 230620Z 14011KT 20/15 A2997 RMK A01 T01960147  RH  073%=      5-min Rain = 0
KWA1 230621Z 14010KT 20/15 A2997 RMK A01 T01950146  RH  073%=      5-min Rain = 0
KWA1 230622Z 14011KT 20/15 A2997 RMK A01 T01950147  RH  073%=      5-min Rain = 0
KWA1 230623Z 13010KT 20/15 A2997 RMK A01 T01950147  RH  073%=      5-min Rain = 0
KWA1 230624Z 14010KT 20/15 A2997 RMK A01 T01950147  RH  074%=      5-min Rain = 0
KWA1 230625Z 14011KT 20/15 A2997 RMK A01 T01950147  RH  074%=      5-min Rain = 0
KWA1 230626Z 13010KT 20/15 A2997 RMK A01 T01950147  RH  074%=      5-min Rain = 0
KWA1 230627Z 14010KT 20/15 A2997 RMK A01 T01950147  RH  074%=      5-min Rain = 0
KWA1 230628Z 14011KT 20/15 A2997 RMK A01 T01950147  RH  074%=      5-min Rain = 0
KWA1 230629Z 14010KT 20/15 A2997 RMK A01 T01950148  RH  074%=      5-min Rain = 0
KWA1 230630Z 14010KT 20/15 A2997 RMK A01 T01950148  RH  074%=      5-min Rain = 0
KWA1 230631Z 14010KT 20/15 A2997 RMK A01 T01950148  RH  074%=      5-min Rain = 0
KWA1 230632Z 14009KT 20/15 A2997 RMK A01 T01950148  RH  074%=      5-min Rain = 0
KWA1 230633Z 14009KT 19/15 A2997 RMK A01 T01940148  RH  074%=      5-min Rain = 0
KWA1 230634Z 14009KT 19/15 A2997 RMK A01 T01940147  RH  074%=      5-min Rain = 0
KWA1 230635Z 14011KT 19/15 A2997 RMK A01 T01940148  RH  075%=      5-min Rain = 0
KWA1 230636Z 14010KT 19/15 A2997 RMK A01 T01940148  RH  075%=      5-min Rain = 0
KWA1 230637Z 14009KT 19/15 A2997 RMK A01 T01940148  RH  075%=      5-min Rain = 0
KWA1 230638Z 14010KT 19/15 A2997 RMK A01 T01940148  RH  075%=      5-min Rain = 0
KWA1 230639Z 13009KT 19/15 A2997 RMK A01 T01940148  RH  075%=      5-min Rain = 0
KWA1 230640Z 14009KT 19/15 A2997 RMK A01 T01940148  RH  075%=      5-min Rain = 0
KWA1 230641Z 13009KT 19/15 A2997 RMK A01 T01940148  RH  075%=      5-min Rain = 0
KWA1 230642Z 13008KT 19/15 A2997 RMK A01 T01930148  RH  075%=      5-min Rain = 0
KWA1 230643Z 13008KT 19/15 A2997 RMK A01 T01920147  RH  075%=      5-min Rain = 0
KWA1 230644Z 13008KT 19/15 A2997 RMK A01 T01920146  RH  075%=      5-min Rain = 0
KWA1 230645Z 13008KT 19/15 A2997 RMK A01 T01910146  RH  075%=      5-min Rain = 0
KWA1 230646Z 13008KT 19/15 A2997 RMK A01 T01900146  RH  075%=      5-min Rain = 0
KWA1 230647Z 13008KT 19/15 A2997 RMK A01 T01890145  RH  076%=      5-min Rain = 0
KWA1 230648Z 13008KT 19/15 A2997 RMK A01 T01880145  RH  076%=      5-min Rain = 0
KWA1 230649Z 13009KT 19/15 A2997 RMK A01 T01880146  RH  076%=      5-min Rain = 0
KWA1 230650Z 13010KT 19/15 A2997 RMK A01 T01890147  RH  077%=      5-min Rain = 0
KWA1 230651Z 13010KT 19/15 A2997 RMK A01 T01900147  RH  076%=      5-min Rain = 0
KWA1 230652Z 13010KT 19/15 A2997 RMK A01 T01900147  RH  076%=      5-min Rain = 0
KWA1 230653Z 13010KT 19/15 A2997 RMK A01 T01900147  RH  076%=      5-min Rain = 0
KWA1 230654Z 13010KT 19/15 A2997 RMK A01 T01900148  RH  076%=      5-min Rain = 0
KWA1 230655Z 13010KT 19/15 A2997 RMK A01 T01900148  RH  076%=      5-min Rain = 0
KWA1 230656Z 13009KT 19/15 A2997 RMK A01 T01900148  RH  077%=      5-min Rain = 0
KWA1 230657Z 13008KT 19/15 A2997 RMK A01 T01900147  RH  076%=      5-min Rain = 0
KWA1 230658Z 13008KT 19/15 A2997 RMK A01 T01890147  RH  076%=      5-min Rain = 0
KWA1 230659Z 12008KT 19/15 A2997 RMK A01 T01890147  RH  077%=      5-min Rain = 0
KWA1 230700Z 12007KT 19/15 A2997 RMK A01 T01880147  RH  077%=      5-min Rain = 0
KWA1 230701Z 12006KT 19/15 A2997 RMK A01 T01870146  RH  077%=      5-min Rain = 0
KWA1 230702Z 12006KT 19/15 A2997 RMK A01 T01870146  RH  077%=      5-min Rain = 0
KWA1 230703Z 12006KT 19/15 A2997 RMK A01 T01860146  RH  077%=      5-min Rain = 0
KWA1 230704Z 12007KT 19/15 A2997 RMK A01 T01860146  RH  077%=      5-min Rain = 0
KWA1 230705Z 12007KT 19/15 A2997 RMK A01 T01860146  RH  078%=      5-min Rain = 0
KWA1 230706Z 12007KT 19/15 A2997 RMK A01 T01860147  RH  078%=      5-min Rain = 0
KWA1 230707Z 12007KT 19/15 A2997 RMK A01 T01860146  RH  078%=      5-min Rain = 0
KWA1 230708Z 12008KT 19/15 A2996 RMK A01 T01860146  RH  078%=      5-min Rain = 0
KWA1 230709Z 12008KT 19/15 A2996 RMK A01 T01860146  RH  078%=      5-min Rain = 0
KWA1 230710Z 12007KT 19/15 A2996 RMK A01 T01860146  RH  078%=      5-min Rain = 0
KWA1 230711Z 12007KT 19/15 A2996 RMK A01 T01850146  RH  078%=      5-min Rain = 0
KWA1 230712Z 12007KT 19/15 A2996 RMK A01 T01850146  RH  078%=      5-min Rain = 0
KWA1 230713Z 12007KT 19/15 A2996 RMK A01 T01850146  RH  078%=      5-min Rain = 0
KWA1 230714Z 12007KT 18/15 A2996 RMK A01 T01840146  RH  078%=      5-min Rain = 0
KWA1 230715Z 12007KT 19/15 A2996 RMK A01 T01850146  RH  078%=      5-min Rain = 0
KWA1 230716Z 12008KT 19/15 A2996 RMK A01 T01850146  RH  078%=      5-min Rain = 0
KWA1 230717Z 12007KT 19/15 A2996 RMK A01 T01850147  RH  078%=      5-min Rain = 0
KWA1 230718Z 12008KT 19/15 A2996 RMK A01 T01850147  RH  079%=      5-min Rain = 0
KWA1 230719Z 12008KT 18/15 A2996 RMK A01 T01840146  RH  078%=      5-min Rain = 0
KWA1 230720Z 12008KT 18/15 A2996 RMK A01 T01840146  RH  078%=      5-min Rain = 0
KWA1 230721Z 12009KT 18/15 A2996 RMK A01 T01840146  RH  079%=      5-min Rain = 0
KWA1 230722Z 12008KT 18/15 A2996 RMK A01 T01840146  RH  079%=      5-min Rain = 0
KWA1 230723Z 12008KT 18/15 A2996 RMK A01 T01840146  RH  079%=      5-min Rain = 0
KWA1 230724Z 12008KT 18/15 A2996 RMK A01 T01830145  RH  078%=      5-min Rain = 0
KWA1 230725Z 12006KT 18/15 A2996 RMK A01 T01830146  RH  079%=      5-min Rain = 0
KWA1 230726Z 11007KT 18/15 A2996 RMK A01 T01830146  RH  079%=      5-min Rain = 0
KWA1 230727Z 11006KT 18/15 A2996 RMK A01 T01830146  RH  079%=      5-min Rain = 0
KWA1 230728Z 11005KT 18/15 A2996 RMK A01 T01830146  RH  079%=      5-min Rain = 0
KWA1 230729Z 11005KT 18/15 A2996 RMK A01 T01830147  RH  079%=      5-min Rain = 0
KWA1 230730Z 10004KT 18/15 A2996 RMK A01 T01830147  RH  079%=      5-min Rain = 0
KWA1 230731Z 10005KT 18/15 A2996 RMK A01 T01830146  RH  079%=      5-min Rain = 0
KWA1 230732Z 09004KT 18/15 A2996 RMK A01 T01830145  RH  078%=      5-min Rain = 0
KWA1 230733Z 09004KT 18/14 A2996 RMK A01 T01820143  RH  078%=      5-min Rain = 0
KWA1 230734Z 09005KT 18/14 A2996 RMK A01 T01810142  RH  078%=      5-min Rain = 0
KWA1 230735Z 10005KT 18/14 A2996 RMK A01 T01800142  RH  078%=      5-min Rain = 0
KWA1 230736Z 10005KT 18/14 A2996 RMK A01 T01790142  RH  079%=      5-min Rain = 0
KWA1 230737Z 10005KT 18/14 A2996 RMK A01 T01790142  RH  079%=      5-min Rain = 0
KWA1 230738Z 10005KT 18/14 A2996 RMK A01 T01780142  RH  079%=      5-min Rain = 0
KWA1 230739Z 10005KT 18/14 A2996 RMK A01 T01790143  RH  080%=      5-min Rain = 0
KWA1 230740Z 10005KT 18/14 A2996 RMK A01 T01780143  RH  080%=      5-min Rain = 0
KWA1 230741Z 10005KT 18/14 A2996 RMK A01 T01780142  RH  079%=      5-min Rain = 0
KWA1 230742Z 10005KT 18/14 A2996 RMK A01 T01780143  RH  080%=      5-min Rain = 0
KWA1 230743Z 10005KT 18/14 A2996 RMK A01 T01770142  RH  080%=      5-min Rain = 0
KWA1 230744Z 10005KT 18/14 A2996 RMK A01 T01770142  RH  080%=      5-min Rain = 0
KWA1 230745Z 11005KT 18/14 A2996 RMK A01 T01770143  RH  081%=      5-min Rain = 0
KWA1 230746Z 11005KT 18/14 A2996 RMK A01 T01760143  RH  081%=      5-min Rain = 0
KWA1 230747Z 10005KT 18/14 A2995 RMK A01 T01760142  RH  080%=      5-min Rain = 0
KWA1 230748Z 11005KT 18/14 A2995 RMK A01 T01760142  RH  080%=      5-min Rain = 0
KWA1 230749Z 10005KT 18/14 A2996 RMK A01 T01760143  RH  081%=      5-min Rain = 0
KWA1 230750Z 11004KT 18/14 A2996 RMK A01 T01760141  RH  080%=      5-min Rain = 0
KWA1 230751Z 10004KT 18/14 A2996 RMK A01 T01760143  RH  081%=      5-min Rain = 0
KWA1 230752Z 11005KT 18/14 A2996 RMK A01 T01760143  RH  081%=      5-min Rain = 0
KWA1 230753Z 11005KT 18/14 A2996 RMK A01 T01760143  RH  081%=      5-min Rain = 0
KWA1 230754Z 10004KT 18/14 A2996 RMK A01 T01760143  RH  081%=      5-min Rain = 0
KWA1 230755Z 10004KT 18/14 A2996 RMK A01 T01760142  RH  080%=      5-min Rain = 0
KWA1 230756Z 10004KT 18/14 A2996 RMK A01 T01760142  RH  081%=      5-min Rain = 0
KWA1 230757Z 09004KT 18/14 A2996 RMK A01 T01760142  RH  081%=      5-min Rain = 0
KWA1 230758Z 09004KT 18/14 A2996 RMK A01 T01750141  RH  080%=      5-min Rain = 0
KWA1 230759Z 09004KT 18/14 A2996 RMK A01 T01750142  RH  081%=      5-min Rain = 0
KWA1 230800Z 08004KT 18/14 A2996 RMK A01 T01750142  RH  081%=      5-min Rain = 0
KWA1 230801Z 08003KT 18/14 A2996 RMK A01 T01750142  RH  081%=      5-min Rain = 0
KWA1 230802Z 08003KT 18/14 A2996 RMK A01 T01750143  RH  081%=      5-min Rain = 0
KWA1 230803Z 08003KT 18/14 A2996 RMK A01 T01750143  RH  081%=      5-min Rain = 0
KWA1 230804Z 08003KT 18/14 A2996 RMK A01 T01750143  RH  081%=      5-min Rain = 0
KWA1 230805Z 08004KT 18/14 A2996 RMK A01 T01760143  RH  081%=      5-min Rain = 0
KWA1 230806Z 08004KT 18/14 A2996 RMK A01 T01760143  RH  081%=      5-min Rain = 0
KWA1 230807Z 09004KT 18/14 A2995 RMK A01 T01770144  RH  081%=      5-min Rain = 0
KWA1 230808Z 09004KT 18/14 A2995 RMK A01 T01780144  RH  081%=      5-min Rain = 0
KWA1 230809Z 10004KT 18/15 A2995 RMK A01 T01790146  RH  081%=      5-min Rain = 0
KWA1 230810Z 10004KT 18/15 A2995 RMK A01 T01800148  RH  081%=      5-min Rain = 0
KWA1 230811Z 09003KT 18/15 A2995 RMK A01 T01810147  RH  080%=      5-min Rain = 0
KWA1 230812Z 10003KT 18/15 A2995 RMK A01 T01820147  RH  080%=      5-min Rain = 0
KWA1 230813Z 09003KT 18/15 A2995 RMK A01 T01810146  RH  080%=      5-min Rain = 0
KWA1 230814Z 09003KT 18/15 A2995 RMK A01 T01820146  RH  080%=      5-min Rain = 0
KWA1 230815Z 10004KT 18/15 A2995 RMK A01 T01820146  RH  080%=      5-min Rain = 0
KWA1 230816Z 10004KT 18/15 A2995 RMK A01 T01820147  RH  080%=      5-min Rain = 0
KWA1 230817Z 09004KT 18/15 A2995 RMK A01 T01830147  RH  080%=      5-min Rain = 0
KWA1 230818Z 08003KT 18/15 A2995 RMK A01 T01830148  RH  080%=      5-min Rain = 0
KWA1 230819Z 08003KT 18/15 A2995 RMK A01 T01840147  RH  079%=      5-min Rain = 0
KWA1 230820Z 08003KT 18/15 A2995 RMK A01 T01840147  RH  079%=      5-min Rain = 0
KWA1 230821Z 08003KT 18/15 A2995 RMK A01 T01840147  RH  079%=      5-min Rain = 0
KWA1 230822Z 08003KT 18/15 A2995 RMK A01 T01840148  RH  079%=      5-min Rain = 0
KWA1 230823Z 08003KT 18/15 A2995 RMK A01 T01840147  RH  079%=      5-min Rain = 0
KWA1 230824Z 08003KT 18/15 A2995 RMK A01 T01840147  RH  079%=      5-min Rain = 0
KWA1 230825Z 09004KT 18/15 A2995 RMK A01 T01840147  RH  079%=      5-min Rain = 0
KWA1 230826Z 09004KT 19/15 A2995 RMK A01 T01850148  RH  079%=      5-min Rain = 0
KWA1 230827Z 09004KT 19/15 A2995 RMK A01 T01850148  RH  079%=      5-min Rain = 0
KWA1 230828Z 10004KT 19/15 A2995 RMK A01 T01850149  RH  079%=      5-min Rain = 0
KWA1 230829Z 09004KT 19/15 A2995 RMK A01 T01860149  RH  079%=      5-min Rain = 0
KWA1 230830Z 10005KT 19/15 A2995 RMK A01 T01860149  RH  079%=      5-min Rain = 0
KWA1 230831Z 11004KT 19/15 A2995 RMK A01 T01860150  RH  080%=      5-min Rain = 0
KWA1 230832Z 11005KT 19/15 A2995 RMK A01 T01870151  RH  080%=      5-min Rain = 0
KWA1 230833Z 12004KT 19/15 A2995 RMK A01 T01870152  RH  080%=      5-min Rain = 0
KWA1 230834Z 12006KT 19/15 A2995 RMK A01 T01880152  RH  080%=      5-min Rain = 0
KWA1 230835Z 12006KT 19/15 A2995 RMK A01 T01880152  RH  080%=      5-min Rain = 0
KWA1 230836Z 12006KT 19/15 A2995 RMK A01 T01880152  RH  079%=      5-min Rain = 0
KWA1 230837Z 12005KT 19/15 A2995 RMK A01 T01890152  RH  079%=      5-min Rain = 0
KWA1 230838Z 12007KT 19/15 A2995 RMK A01 T01890152  RH  079%=      5-min Rain = 0
KWA1 230839Z 12007KT 19/15 A2994 RMK A01 T01890152  RH  079%=      5-min Rain = 0
KWA1 230840Z 12007KT 19/15 A2994 RMK A01 T01890152  RH  079%=      5-min Rain = 0
KWA1 230841Z 12007KT 19/15 A2995 RMK A01 T01900153  RH  079%=      5-min Rain = 0
KWA1 230842Z 13006KT 19/15 A2995 RMK A01 T01900152  RH  079%=      5-min Rain = 0
KWA1 230843Z 13006KT 19/15 A2995 RMK A01 T01900153  RH  079%=      5-min Rain = 0
KWA1 230844Z 13006KT 19/15 A2995 RMK A01 T01900153  RH  079%=      5-min Rain = 0
KWA1 230845Z 13006KT 19/15 A2995 RMK A01 T01900153  RH  079%=      5-min Rain = 0
KWA1 230846Z 13007KT 19/15 A2995 RMK A01 T01900153  RH  079%=      5-min Rain = 0
KWA1 230847Z 14007KT 19/15 A2995 RMK A01 T01900153  RH  079%=      5-min Rain = 0
KWA1 230848Z 14006KT 19/15 A2995 RMK A01 T01910153  RH  079%=      5-min Rain = 0
KWA1 230849Z 14007KT 19/15 A2995 RMK A01 T01910153  RH  079%=      5-min Rain = 0
KWA1 230850Z 14006KT 19/15 A2995 RMK A01 T01910153  RH  079%=      5-min Rain = 0
KWA1 230851Z 14007KT 19/15 A2995 RMK A01 T01910153  RH  079%=      5-min Rain = 0
KWA1 230852Z 14007KT 19/15 A2995 RMK A01 T01910153  RH  079%=      5-min Rain = 0
KWA1 230853Z 14006KT 19/15 A2995 RMK A01 T01920154  RH  079%=      5-min Rain = 0
KWA1 230854Z 13008KT 19/15 A2995 RMK A01 T01920154  RH  079%=      5-min Rain = 0
KWA1 230855Z 13007KT 19/15 A2995 RMK A01 T01920154  RH  079%=      5-min Rain = 0
KWA1 230856Z 13006KT 19/15 A2995 RMK A01 T01920154  RH  079%=      5-min Rain = 0
KWA1 230857Z 13006KT 19/15 A2995 RMK A01 T01910153  RH  079%=      5-min Rain = 0
KWA1 230858Z 13006KT 19/15 A2995 RMK A01 T01920154  RH  079%=      5-min Rain = 0
KWA1 230859Z 13005KT 19/15 A2995 RMK A01 T01910154  RH  079%=      5-min Rain = 0
KWA1 230900Z 12006KT 19/15 A2995 RMK A01 T01910154  RH  079%=      5-min Rain = 0
KWA1 230901Z 12005KT 19/15 A2995 RMK A01 T01920154  RH  079%=      5-min Rain = 0
KWA1 230902Z 12005KT 19/15 A2995 RMK A01 T01920154  RH  079%=      5-min Rain = 0
KWA1 230903Z 13006KT 19/15 A2995 RMK A01 T01920154  RH  078%=      5-min Rain = 0
KWA1 230904Z 12008KT 19/15 A2995 RMK A01 T01920154  RH  079%=      5-min Rain = 0
KWA1 230905Z 13006KT 19/15 A2995 RMK A01 T01920154  RH  079%=      5-min Rain = 0
KWA1 230906Z 12006KT 19/15 A2995 RMK A01 T01930154  RH  078%=      5-min Rain = 0
KWA1 230907Z 13006KT 19/15 A2995 RMK A01 T01920154  RH  079%=      5-min Rain = 0
KWA1 230908Z 13006KT 19/15 A2995 RMK A01 T01920154  RH  079%=      5-min Rain = 0
KWA1 230909Z 13006KT 19/16 A2995 RMK A01 T01920155  RH  079%=      5-min Rain = 0
KWA1 230910Z 12006KT 19/16 A2995 RMK A01 T01930155  RH  079%=      5-min Rain = 0
KWA1 230911Z 13007KT 19/16 A2994 RMK A01 T01930155  RH  079%=      5-min Rain = 0
KWA1 230912Z 13007KT 19/16 A2994 RMK A01 T01920155  RH  079%=      5-min Rain = 0
KWA1 230913Z 13008KT 19/16 A2994 RMK A01 T01920155  RH  079%=      5-min Rain = 0
KWA1 230914Z 13008KT 19/16 A2994 RMK A01 T01930155  RH  079%=      5-min Rain = 0
KWA1 230915Z 13007KT 19/16 A2995 RMK A01 T01930155  RH  079%=      5-min Rain = 0
KWA1 230916Z 12007KT 19/16 A2995 RMK A01 T01930155  RH  078%=      5-min Rain = 0
KWA1 230917Z 13007KT 19/16 A2995 RMK A01 T01930155  RH  078%=      5-min Rain = 0
KWA1 230918Z 13007KT 19/16 A2995 RMK A01 T01930155  RH  079%=      5-min Rain = 0
KWA1 230919Z 13007KT 19/16 A2995 RMK A01 T01930155  RH  079%=      5-min Rain = 0
KWA1 230920Z 13006KT 19/16 A2995 RMK A01 T01930155  RH  079%=      5-min Rain = 0
KWA1 230921Z 13006KT 19/16 A2995 RMK A01 T01930155  RH  079%=      5-min Rain = 0
KWA1 230922Z 13005KT 19/16 A2995 RMK A01 T01930155  RH  079%=      5-min Rain = 0
KWA1 230923Z 13007KT 19/16 A2995 RMK A01 T01930155  RH  079%=      5-min Rain = 0
KWA1 230924Z 13007KT 19/16 A2995 RMK A01 T01930155  RH  079%=      5-min Rain = 0
KWA1 230925Z 13007KT 19/16 A2995 RMK A01 T01930155  RH  079%=      5-min Rain = 0
KWA1 230926Z 13007KT 19/16 A2995 RMK A01 T01930155  RH  079%=      5-min Rain = 0
KWA1 230927Z 13007KT 19/16 A2995 RMK A01 T01930155  RH  079%=      5-min Rain = 0
KWA1 230928Z 13007KT 19/16 A2995 RMK A01 T01930155  RH  079%=      5-min Rain = 0
KWA1 230929Z 13007KT 19/16 A2995 RMK A01 T01930155  RH  079%=      5-min Rain = 0
KWA1 230930Z 13007KT 19/16 A2995 RMK A01 T01930155  RH  079%=      5-min Rain = 0
KWA1 230931Z 13006KT 19/16 A2995 RMK A01 T01930155  RH  079%=      5-min Rain = 0
KWA1 230932Z 12006KT 19/16 A2995 RMK A01 T01930155  RH  079%=      5-min Rain = 0
KWA1 230933Z 12007KT 19/16 A2995 RMK A01 T01930156  RH  079%=      5-min Rain = 0
KWA1 230934Z 13007KT 19/16 A2995 RMK A01 T01930156  RH  079%=      5-min Rain = 0
KWA1 230935Z 13007KT 19/16 A2995 RMK A01 T01930156  RH  079%=      5-min Rain = 0
KWA1 230936Z 12006KT 19/16 A2995 RMK A01 T01940156  RH  079%=      5-min Rain = 0
KWA1 230937Z 12007KT 19/16 A2995 RMK A01 T01930156  RH  079%=      5-min Rain = 0
KWA1 230938Z 12007KT 19/16 A2994 RMK A01 T01930156  RH  079%=      5-min Rain = 0
KWA1 230939Z 12007KT 19/16 A2994 RMK A01 T01930156  RH  079%=      5-min Rain = 0
KWA1 230940Z 12007KT 19/16 A2994 RMK A01 T01930156  RH  079%=      5-min Rain = 0
KWA1 230941Z 12006KT 19/16 A2994 RMK A01 T01930156  RH  079%=      5-min Rain = 0
KWA1 230942Z 11005KT 19/16 A2994 RMK A01 T01930156  RH  079%=      5-min Rain = 0
KWA1 230943Z 11005KT 19/16 A2994 RMK A01 T01930156  RH  079%=      5-min Rain = 0
KWA1 230944Z 12005KT 19/16 A2994 RMK A01 T01930156  RH  079%=      5-min Rain = 0
KWA1 230945Z 12006KT 19/16 A2994 RMK A01 T01930156  RH  079%=      5-min Rain = 0
KWA1 230946Z 11006KT 19/16 A2994 RMK A01 T01930156  RH  079%=      5-min Rain = 0
KWA1 230947Z 12006KT 19/16 A2995 RMK A01 T01930156  RH  079%=      5-min Rain = 0
KWA1 230948Z 12006KT 19/16 A2995 RMK A01 T01930156  RH  079%=      5-min Rain = 0
KWA1 230949Z 11005KT 19/16 A2995 RMK A01 T01930156  RH  079%=      5-min Rain = 0
KWA1 230950Z 12005KT 19/16 A2995 RMK A01 T01940156  RH  079%=      5-min Rain = 0
KWA1 230951Z 11004KT 19/16 A2995 RMK A01 T01930156  RH  079%=      5-min Rain = 0
KWA1 230952Z 12005KT 19/16 A2995 RMK A01 T01930156  RH  079%=      5-min Rain = 0
KWA1 230953Z 12005KT 19/16 A2995 RMK A01 T01930156  RH  079%=      5-min Rain = 0
KWA1 230954Z 12005KT 19/16 A2995 RMK A01 T01930156  RH  079%=      5-min Rain = 0
KWA1 230955Z 12005KT 19/16 A2995 RMK A01 T01930157  RH  079%=      5-min Rain = 0
KWA1 230956Z 12006KT 19/16 A2995 RMK A01 T01930156  RH  079%=      5-min Rain = 0
KWA1 230957Z 12005KT 19/16 A2995 RMK A01 T01930157  RH  079%=      5-min Rain = 0
KWA1 230958Z 12006KT 19/16 A2995 RMK A01 T01930156  RH  079%=      5-min Rain = 0
KWA1 230959Z 12006KT 19/16 A2995 RMK A01 T01930156  RH  079%=      5-min Rain = 0
KWA1 231000Z 12006KT 19/16 A2995 RMK A01 T01930157  RH  079%=      5-min Rain = 0
KWA1 231001Z 12006KT 19/16 A2995 RMK A01 T01930157  RH  079%=      5-min Rain = 0
KWA1 231002Z 12005KT 19/16 A2995 RMK A01 T01930156  RH  079%=      5-min Rain = 0
KWA1 231003Z 12005KT 19/16 A2995 RMK A01 T01930157  RH  079%=      5-min Rain = 0
KWA1 231004Z 12005KT 19/16 A2995 RMK A01 T01930157  RH  079%=      5-min Rain = 0
KWA1 231005Z 12005KT 19/16 A2995 RMK A01 T01930156  RH  079%=      5-min Rain = 0
KWA1 231006Z 12005KT 19/16 A2995 RMK A01 T01930157  RH  080%=      5-min Rain = 0
KWA1 231007Z 12005KT 19/16 A2995 RMK A01 T01930157  RH  080%=      5-min Rain = 0
KWA1 231008Z 12005KT 19/16 A2995 RMK A01 T01930157  RH  079%=      5-min Rain = 0
KWA1 231009Z 12004KT 19/16 A2995 RMK A01 T01930157  RH  079%=      5-min Rain = 0
KWA1 231010Z 12004KT 19/16 A2995 RMK A01 T01930157  RH  079%=      5-min Rain = 0
KWA1 231011Z 11004KT 19/16 A2995 RMK A01 T01930157  RH  079%=      5-min Rain = 0
KWA1 231012Z 11004KT 19/16 A2995 RMK A01 T01930157  RH  080%=      5-min Rain = 0
KWA1 231013Z 11004KT 19/16 A2995 RMK A01 T01930157  RH  079%=      5-min Rain = 0
KWA1 231014Z 10004KT 19/16 A2995 RMK A01 T01930157  RH  079%=      5-min Rain = 0
KWA1 231015Z 11004KT 19/16 A2995 RMK A01 T01940157  RH  079%=      5-min Rain = 0
KWA1 231016Z 10004KT 19/16 A2996 RMK A01 T01940156  RH  079%=      5-min Rain = 0
KWA1 231017Z 11005KT 19/16 A2996 RMK A01 T01940157  RH  079%=      5-min Rain = 0
KWA1 231018Z 10004KT 19/16 A2996 RMK A01 T01940157  RH  079%=      5-min Rain = 0
KWA1 231019Z 10004KT 19/16 A2996 RMK A01 T01940157  RH  079%=      5-min Rain = 0
KWA1 231020Z 10004KT 19/16 A2996 RMK A01 T01940157  RH  079%=      5-min Rain = 0
KWA1 231021Z 10005KT 20/16 A2996 RMK A01 T01950157  RH  079%=      5-min Rain = 0
KWA1 231022Z 10005KT 19/16 A2996 RMK A01 T01940157  RH  079%=      5-min Rain = 0
KWA1 231023Z 11004KT 19/16 A2996 RMK A01 T01940157  RH  079%=      5-min Rain = 0
KWA1 231024Z 11004KT 19/16 A2996 RMK A01 T01940157  RH  079%=      5-min Rain = 0
KWA1 231025Z 11005KT 20/16 A2996 RMK A01 T01950158  RH  079%=      5-min Rain = 0
KWA1 231026Z 11004KT 19/16 A2996 RMK A01 T01940158  RH  079%=      5-min Rain = 0
KWA1 231027Z 11005KT 19/16 A2996 RMK A01 T01940158  RH  079%=      5-min Rain = 0
KWA1 231028Z 11005KT 19/16 A2996 RMK A01 T01940158  RH  079%=      5-min Rain = 0
KWA1 231029Z 11004KT 19/16 A2996 RMK A01 T01940158  RH  079%=      5-min Rain = 0
KWA1 231030Z 11004KT 19/16 A2996 RMK A01 T01940158  RH  079%=      5-min Rain = 0
KWA1 231031Z 11005KT 19/16 A2996 RMK A01 T01940158  RH  079%=      5-min Rain = 0
KWA1 231032Z 11005KT 20/16 A2996 RMK A01 T01950158  RH  079%=      5-min Rain = 0
KWA1 231033Z 11005KT 19/16 A2996 RMK A01 T01940158  RH  080%=      5-min Rain = 0
KWA1 231034Z 11005KT 19/16 A2996 RMK A01 T01940158  RH  079%=      5-min Rain = 0
KWA1 231035Z 11005KT 19/16 A2996 RMK A01 T01940158  RH  080%=      5-min Rain = 0
KWA1 231036Z 11005KT 19/16 A2996 RMK A01 T01940158  RH  080%=      5-min Rain = 0
KWA1 231037Z 11005KT 19/16 A2996 RMK A01 T01940158  RH  080%=      5-min Rain = 0
KWA1 231038Z 11005KT 19/16 A2996 RMK A01 T01940158  RH  080%=      5-min Rain = 0
KWA1 231039Z 12005KT 19/16 A2996 RMK A01 T01940158  RH  080%=      5-min Rain = 0
KWA1 231040Z 12006KT 19/16 A2996 RMK A01 T01940158  RH  080%=      5-min Rain = 0
KWA1 231041Z 12006KT 20/16 A2996 RMK A01 T01950159  RH  080%=      5-min Rain = 0
KWA1 231042Z 12006KT 19/16 A2996 RMK A01 T01940159  RH  080%=      5-min Rain = 0
KWA1 231043Z 11005KT 19/16 A2996 RMK A01 T01940159  RH  080%=      5-min Rain = 0
KWA1 231044Z 12005KT 19/16 A2996 RMK A01 T01940159  RH  080%=      5-min Rain = 0
KWA1 231045Z 11005KT 19/16 A2996 RMK A01 T01940158  RH  080%=      5-min Rain = 0
KWA1 231046Z 12005KT 19/16 A2996 RMK A01 T01940159  RH  080%=      5-min Rain = 0
KWA1 231047Z 12007KT 19/16 A2996 RMK A01 T01940159  RH  080%=      5-min Rain = 0
KWA1 231048Z 12006KT 19/16 A2996 RMK A01 T01940159  RH  080%=      5-min Rain = 0
KWA1 231049Z 11005KT 19/16 A2996 RMK A01 T01940158  RH  080%=      5-min Rain = 0
KWA1 231050Z 11005KT 19/16 A2996 RMK A01 T01940159  RH  080%=      5-min Rain = 0
KWA1 231051Z 12005KT 19/16 A2996 RMK A01 T01940158  RH  080%=      5-min Rain = 0
KWA1 231052Z 11005KT 19/16 A2996 RMK A01 T01940158  RH  080%=      5-min Rain = 0
KWA1 231053Z 10005KT 19/16 A2996 RMK A01 T01940158  RH  080%=      5-min Rain = 0
KWA1 231054Z 10006KT 19/16 A2996 RMK A01 T01940159  RH  080%=      5-min Rain = 0
KWA1 231055Z 10006KT 19/16 A2996 RMK A01 T01940159  RH  080%=      5-min Rain = 0
KWA1 231056Z 10006KT 19/16 A2996 RMK A01 T01940158  RH  080%=      5-min Rain = 0
KWA1 231057Z 11005KT 19/16 A2996 RMK A01 T01930159  RH  080%=      5-min Rain = 0
KWA1 231058Z 10005KT 19/16 A2996 RMK A01 T01930159  RH  081%=      5-min Rain = 0
KWA1 231059Z 10005KT 19/16 A2996 RMK A01 T01930159  RH  081%=      5-min Rain = 0
KWA1 231100Z 11005KT 19/16 A2996 RMK A01 T01930159  RH  081%=      5-min Rain = 0
KWA1 231101Z 11005KT 19/16 A2996 RMK A01 T01920159  RH  081%=      5-min Rain = 0
KWA1 231102Z 11005KT 19/16 A2996 RMK A01 T01920160  RH  081%=      5-min Rain = 0
KWA1 231103Z 11005KT 19/16 A2996 RMK A01 T01920160  RH  081%=      5-min Rain = 0
KWA1 231104Z 12006KT 19/16 A2996 RMK A01 T01920160  RH  082%=      5-min Rain = 0
KWA1 231105Z 12008KT 19/16 A2996 RMK A01 T01920161  RH  082%=      5-min Rain = 0
KWA1 231106Z 13008KT 19/16 A2996 RMK A01 T01920161  RH  082%=      5-min Rain = 0
KWA1 231107Z 13009KT 19/16 A2997 RMK A01 T01920162  RH  083%=      5-min Rain = 0
KWA1 231108Z 13008KT 19/16 A2997 RMK A01 T01920162  RH  083%=      5-min Rain = 0
KWA1 231109Z 13007KT 19/16 A2997 RMK A01 T01910162  RH  083%=      5-min Rain = 0
KWA1 231110Z 14007KT 19/16 A2997 RMK A01 T01910163  RH  083%=      5-min Rain = 0
KWA1 231111Z 14006KT 19/16 A2997 RMK A01 T01910163  RH  084%=      5-min Rain = 0
KWA1 231112Z 13007KT 19/16 A2997 RMK A01 T01900162  RH  084%=      5-min Rain = 0
KWA1 231113Z 13006KT 19/16 A2997 RMK A01 T01910162  RH  084%=      5-min Rain = 0
KWA1 231114Z 12007KT 19/16 A2997 RMK A01 T01910163  RH  084%=      5-min Rain = 0
KWA1 231115Z 12007KT 19/16 A2997 RMK A01 T01900162  RH  084%=      5-min Rain = 0
KWA1 231116Z 10006KT 19/16 A2997 RMK A01 T01900162  RH  084%=      5-min Rain = 0
KWA1 231117Z 09006KT 19/16 A2997 RMK A01 T01890162  RH  084%=      5-min Rain = 0
KWA1 231118Z 09006KT 19/16 A2997 RMK A01 T01880162  RH  084%=      5-min Rain = 0
KWA1 231119Z 10007KT 19/16 A2997 RMK A01 T01880162  RH  085%=      5-min Rain = 0
KWA1 231120Z 10007KT 19/16 A2997 RMK A01 T01870163  RH  086%=      5-min Rain = 0
KWA1 231121Z 10007KT 19/16 A2997 RMK A01 T01870164  RH  087%=      5-min Rain = 0
KWA1 231122Z 10006KT 19/16 A2997 RMK A01 T01860164  RH  087%=      5-min Rain = 0
KWA1 231123Z 10006KT 19/17 A2997 RMK A01 T01850165  RH  088%=      5-min Rain = 0
KWA1 231124Z 10007KT 19/17 A2997 RMK A01 T01850165  RH  088%=      5-min Rain = 0
KWA1 231125Z 10006KT 18/17 A2997 RMK A01 T01840165  RH  089%=      5-min Rain = 0
KWA1 231126Z 10006KT 18/17 A2997 RMK A01 T01830166  RH  090%=      5-min Rain = 0
KWA1 231127Z 09007KT 18/17 A2997 RMK A01 T01830166  RH  090%=      5-min Rain = 0
KWA1 231128Z 10006KT 18/17 A2997 RMK A01 T01830167  RH  090%=      5-min Rain = 0
KWA1 231129Z 10006KT 18/17 A2997 RMK A01 T01820167  RH  091%=      5-min Rain = 0
KWA1 231130Z 10006KT 18/17 A2997 RMK A01 T01820167  RH  091%=      5-min Rain = 0
KWA1 231131Z 10005KT 18/17 A2997 RMK A01 T01810168  RH  092%=      5-min Rain = 0
KWA1 231132Z 10005KT 18/17 A2997 RMK A01 T01810167  RH  092%=      5-min Rain = 0
KWA1 231133Z 10005KT 18/17 A2997 RMK A01 T01810168  RH  092%=      5-min Rain = 0
KWA1 231134Z 10006KT 18/17 A2997 RMK A01 T01810168  RH  092%=      5-min Rain = 0
KWA1 231135Z 09007KT 18/17 A2997 RMK A01 T01800167  RH  092%=      5-min Rain = 0
KWA1 231136Z 09006KT 18/17 A2997 RMK A01 T01800167  RH  092%=      5-min Rain = 0
KWA1 231137Z 09006KT 18/17 A2997 RMK A01 T01800167  RH  092%=      5-min Rain = 0
KWA1 231138Z 09006KT 18/17 A2997 RMK A01 T01800168  RH  093%=      5-min Rain = 0
KWA1 231139Z 09006KT 18/17 A2997 RMK A01 T01790167  RH  093%=      5-min Rain = 0
KWA1 231140Z 09005KT 18/17 A2997 RMK A01 T01790168  RH  093%=      5-min Rain = 0
KWA1 231141Z 09006KT 18/17 A2997 RMK A01 T01780167  RH  093%=      5-min Rain = 0
KWA1 231142Z 08005KT 18/17 A2997 RMK A01 T01780168  RH  093%=      5-min Rain = 0
KWA1 231143Z 08005KT 18/17 A2997 RMK A01 T01780168  RH  094%=      5-min Rain = 0
KWA1 231144Z 08005KT 18/17 A2997 RMK A01 T01770167  RH  094%=      5-min Rain = 0
KWA1 231145Z 07005KT 18/17 A2998 RMK A01 T01770167  RH  094%=      5-min Rain = 0
KWA1 231146Z 07004KT 18/17 A2998 RMK A01 T01770167  RH  094%=      5-min Rain = 0
KWA1 231147Z 08004KT 18/17 A2998 RMK A01 T01760167  RH  094%=      5-min Rain = 0
KWA1 231148Z 08004KT 18/17 A2998 RMK A01 T01760168  RH  095%=      5-min Rain = 0
KWA1 231149Z 08004KT 18/17 A2998 RMK A01 T01760168  RH  095%=      5-min Rain = 0
KWA1 231150Z 08005KT 18/17 A2998 RMK A01 T01760168  RH  095%=      5-min Rain = 0
KWA1 231151Z 08004KT 18/17 A2998 RMK A01 T01760169  RH  095%=      5-min Rain = 0
KWA1 231152Z 08004KT 18/17 A2998 RMK A01 T01760168  RH  095%=      5-min Rain = 0
KWA1 231153Z 08004KT 18/17 A2998 RMK A01 T01760169  RH  095%=      5-min Rain = 0
KWA1 231154Z 08004KT 18/17 A2998 RMK A01 T01760169  RH  096%=      5-min Rain = 0
KWA1 231155Z 08004KT 18/17 A2998 RMK A01 T01760169  RH  096%=      5-min Rain = 0
KWA1 231156Z 08004KT 18/17 A2998 RMK A01 T01760169  RH  096%=      5-min Rain = 0
KWA1 231157Z 07005KT 18/17 A2998 RMK A01 T01760169  RH  096%=      5-min Rain = 0
KWA1 231158Z 07005KT 18/17 A2998 RMK A01 T01750169  RH  096%=      5-min Rain = 0
KWA1 231159Z 07005KT 18/17 A2998 RMK A01 T01750169  RH  096%=      5-min Rain = 0
KWA1 231200Z 08005KT 18/17 A2998 RMK A01 T01750169  RH  096%=      5-min Rain = 0
KWA1 231201Z 08004KT 18/17 A2998 RMK A01 T01750168  RH  096%=      5-min Rain = 0
KWA1 231202Z 08004KT 18/17 A2998 RMK A01 T01750169  RH  096%=      5-min Rain = 0
KWA1 231203Z 08004KT 18/17 A2998 RMK A01 T01750169  RH  096%=      5-min Rain = 0
KWA1 231204Z 08005KT 18/17 A2998 RMK A01 T01750169  RH  096%=      5-min Rain = 0
KWA1 231205Z 08005KT 18/17 A2998 RMK A01 T01750169  RH  096%=      5-min Rain = 0
KWA1 231206Z 08005KT 18/17 A2998 RMK A01 T01750169  RH  096%=      5-min Rain = 0
KWA1 231207Z 08005KT 18/17 A2998 RMK A01 T01750169  RH  096%=      5-min Rain = 0
KWA1 231208Z 07005KT 18/17 A2998 RMK A01 T01750169  RH  096%=      5-min Rain = 0
KWA1 231209Z 07005KT 18/17 A2998 RMK A01 T01750169  RH  096%=      5-min Rain = 0
KWA1 231210Z 08005KT 18/17 A2998 RMK A01 T01750169  RH  096%=      5-min Rain = 0
KWA1 231211Z 08005KT 18/17 A2998 RMK A01 T01750169  RH  096%=      5-min Rain = 0
KWA1 231212Z 08005KT 18/17 A2999 RMK A01 T01750170  RH  096%=      5-min Rain = 0
KWA1 231213Z 08005KT 18/17 A2999 RMK A01 T01750169  RH  096%=      5-min Rain = 0
KWA1 231214Z 08004KT 18/17 A2999 RMK A01 T01750169  RH  096%=      5-min Rain = 0
KWA1 231215Z 08005KT 18/17 A2999 RMK A01 T01750169  RH  096%=      5-min Rain = 0
KWA1 231216Z 08005KT 18/17 A2999 RMK A01 T01750170  RH  097%=      5-min Rain = 0
KWA1 231217Z 08006KT 18/17 A2999 RMK A01 T01750169  RH  097%=      5-min Rain = 0
KWA1 231218Z 08006KT 17/17 A2999 RMK A01 T01740169  RH  097%=      5-min Rain = 0
KWA1 231219Z 08005KT 18/17 A2999 RMK A01 T01750169  RH  097%=      5-min Rain = 0
KWA1 231220Z 09006KT 18/17 A2999 RMK A01 T01750169  RH  097%=      5-min Rain = 0
KWA1 231221Z 09006KT 18/17 A2999 RMK A01 T01750169  RH  097%=      5-min Rain = 0
KWA1 231222Z 09006KT 18/17 A2999 RMK A01 T01750169  RH  096%=      5-min Rain = 0
KWA1 231223Z 09006KT 18/17 A2999 RMK A01 T01750169  RH  096%=      5-min Rain = 0
KWA1 231224Z 09006KT 18/17 A2999 RMK A01 T01750169  RH  096%=      5-min Rain = 0
KWA1 231225Z 09005KT 18/17 A2999 RMK A01 T01750169  RH  096%=      5-min Rain = 0
KWA1 231226Z 09005KT 18/17 A2999 RMK A01 T01750169  RH  096%=      5-min Rain = 0
KWA1 231227Z 09006KT 18/17 A2999 RMK A01 T01750169  RH  096%=      5-min Rain = 0
KWA1 231228Z 09006KT 18/17 A2999 RMK A01 T01750169  RH  096%=      5-min Rain = 0
KWA1 231229Z 09006KT 18/17 A2999 RMK A01 T01750169  RH  096%=      5-min Rain = 0
KWA1 231230Z 10006KT 18/17 A2999 RMK A01 T01750169  RH  096%=      5-min Rain = 0
KWA1 231231Z 10005KT 18/17 A2999 RMK A01 T01750169  RH  096%=      5-min Rain = 0
KWA1 231232Z 10006KT 18/17 A2999 RMK A01 T01750169  RH  096%=      5-min Rain = 0
KWA1 231233Z 09006KT 18/17 A2999 RMK A01 T01750169  RH  096%=      5-min Rain = 0
KWA1 231234Z 09006KT 18/17 A2999 RMK A01 T01750169  RH  096%=      5-min Rain = 0
KWA1 231235Z 09006KT 18/17 A2999 RMK A01 T01750169  RH  096%=      5-min Rain = 0
KWA1 231236Z 09006KT 18/17 A2999 RMK A01 T01750169  RH  096%=      5-min Rain = 0
KWA1 231237Z 09006KT 18/17 A2999 RMK A01 T01750169  RH  096%=      5-min Rain = 0
KWA1 231238Z 09005KT 18/17 A30 RMK A01 T01750169  RH  096%=      5-min Rain = 0
KWA1 231239Z 09005KT 18/17 A30 RMK A01 T01760170  RH  096%=      5-min Rain = 0
KWA1 231240Z 09005KT 18/17 A30 RMK A01 T01760170  RH  096%=      5-min Rain = 0
KWA1 231241Z 09005KT 18/17 A30 RMK A01 T01760170  RH  096%=      5-min Rain = 0
KWA1 231242Z 09006KT 18/17 A30 RMK A01 T01750170  RH  096%=      5-min Rain = 0
KWA1 231243Z 09006KT 18/17 A30 RMK A01 T01760170  RH  096%=      5-min Rain = 0
KWA1 231244Z 09006KT 18/17 A30 RMK A01 T01750169  RH  096%=      5-min Rain = 0
KWA1 231245Z 09006KT 18/17 A30 RMK A01 T01750169  RH  096%=      5-min Rain = 0
KWA1 231246Z 09005KT 18/17 A30 RMK A01 T01760170  RH  096%=      5-min Rain = 0
KWA1 231247Z 09005KT 18/17 A30 RMK A01 T01760170  RH  096%=      5-min Rain = 0
KWA1 231248Z 09005KT 18/17 A30 RMK A01 T01760170  RH  096%=      5-min Rain = 0
KWA1 231249Z 09004KT 18/17 A30 RMK A01 T01760170  RH  096%=      5-min Rain = 0
KWA1 231250Z 08005KT 18/17 A30 RMK A01 T01760170  RH  096%=      5-min Rain = 0
KWA1 231251Z 09005KT 18/17 A30 RMK A01 T01760171  RH  096%=      5-min Rain = 0
KWA1 231252Z 08005KT 18/17 A30 RMK A01 T01770171  RH  096%=      5-min Rain = 0
KWA1 231253Z 08006KT 18/17 A30 RMK A01 T01770171  RH  096%=      5-min Rain = 0
KWA1 231254Z 08006KT 18/17 A30 RMK A01 T01770171  RH  096%=      5-min Rain = 0
KWA1 231255Z 08005KT 18/17 A30 RMK A01 T01760171  RH  096%=      5-min Rain = 0
KWA1 231256Z 09006KT 18/17 A30 RMK A01 T01760171  RH  096%=      5-min Rain = 0
KWA1 231257Z 09006KT 18/17 A30 RMK A01 T01760171  RH  096%=      5-min Rain = 0
KWA1 231258Z 08006KT 18/17 A30 RMK A01 T01760171  RH  096%=      5-min Rain = 0
KWA1 231259Z 08005KT 18/17 A30 RMK A01 T01760170  RH  096%=      5-min Rain = 0
KWA1 231300Z 08006KT 18/17 A3001 RMK A01 T01760171  RH  096%=      5-min Rain = 0
KWA1 231301Z 08005KT 18/17 A30 RMK A01 T01770171  RH  096%=      5-min Rain = 0
KWA1 231302Z 08006KT 18/17 A30 RMK A01 T01760171  RH  096%=      5-min Rain = 0
KWA1 231303Z 08007KT 18/17 A30 RMK A01 T01760170  RH  096%=      5-min Rain = 0
KWA1 231304Z 08006KT 18/17 A30 RMK A01 T01760170  RH  096%=      5-min Rain = 0
KWA1 231305Z 08007KT 18/17 A30 RMK A01 T01760170  RH  096%=      5-min Rain = 0
KWA1 231306Z 08006KT 18/17 A30 RMK A01 T01760170  RH  096%=      5-min Rain = 0
KWA1 231307Z 09005KT 18/17 A30 RMK A01 T01760170  RH  096%=      5-min Rain = 0
KWA1 231308Z 09007KT 18/17 A30 RMK A01 T01760170  RH  096%=      5-min Rain = 0
KWA1 231309Z 09008KT 18/17 A30 RMK A01 T01760170  RH  096%=      5-min Rain = 0
KWA1 231310Z 09007KT 18/17 A30 RMK A01 T01760169  RH  096%=      5-min Rain = 0
KWA1 231311Z 09007KT 18/17 A30 RMK A01 T01760170  RH  096%=      5-min Rain = 0
KWA1 231312Z 10005KT 18/17 A30 RMK A01 T01770170  RH  096%=      5-min Rain = 0
KWA1 231313Z 09006KT 18/17 A30 RMK A01 T01770171  RH  096%=      5-min Rain = 0
KWA1 231314Z 09005KT 18/17 A30 RMK A01 T01770171  RH  096%=      5-min Rain = 0
KWA1 231315Z 09006KT 18/17 A3001 RMK A01 T01770171  RH  096%=      5-min Rain = 0
KWA1 231316Z 09006KT 18/17 A3001 RMK A01 T01770171  RH  096%=      5-min Rain = 0
KWA1 231317Z 09006KT 18/17 A3001 RMK A01 T01770170  RH  096%=      5-min Rain = 0
KWA1 231318Z 09007KT 18/17 A3001 RMK A01 T01770171  RH  096%=      5-min Rain = 0
KWA1 231319Z 09007KT 18/17 A3001 RMK A01 T01770170  RH  096%=      5-min Rain = 0
KWA1 231320Z 09007KT 18/17 A3001 RMK A01 T01770170  RH  096%=      5-min Rain = 0
KWA1 231321Z 09006KT 18/17 A3001 RMK A01 T01770171  RH  096%=      5-min Rain = 0
KWA1 231322Z 09006KT 18/17 A3001 RMK A01 T01770170  RH  096%=      5-min Rain = 0
KWA1 231323Z 10006KT 18/17 A3001 RMK A01 T01770170  RH  096%=      5-min Rain = 0
KWA1 231324Z 09006KT 18/17 A3001 RMK A01 T01770170  RH  096%=      5-min Rain = 0
KWA1 231325Z 09006KT 18/17 A3001 RMK A01 T01770171  RH  096%=      5-min Rain = 0
KWA1 231326Z 09007KT 18/17 A3001 RMK A01 T01770170  RH  096%=      5-min Rain = 0
KWA1 231327Z 09006KT 18/17 A3001 RMK A01 T01770170  RH  096%=      5-min Rain = 0
KWA1 231328Z 09007KT 18/17 A3001 RMK A01 T01770171  RH  096%=      5-min Rain = 0
KWA1 231329Z 09006KT 18/17 A3001 RMK A01 T01770171  RH  096%=      5-min Rain = 0
KWA1 231330Z 09006KT 18/17 A3001 RMK A01 T01770171  RH  096%=      5-min Rain = 0
KWA1 231331Z 09005KT 18/17 A3001 RMK A01 T01770171  RH  096%=      5-min Rain = 0
KWA1 231332Z 09006KT 18/17 A3001 RMK A01 T01770171  RH  096%=      5-min Rain = 0
KWA1 231333Z 09007KT 18/17 A3001 RMK A01 T01780171  RH  096%=      5-min Rain = 0
KWA1 231334Z 09007KT 18/17 A3001 RMK A01 T01780170  RH  095%=      5-min Rain = 0
KWA1 231335Z 10007KT 18/17 A3001 RMK A01 T01780170  RH  095%=      5-min Rain = 0
KWA1 231336Z 10006KT 18/17 A3001 RMK A01 T01780170  RH  095%=      5-min Rain = 0
KWA1 231337Z 10006KT 18/17 A3002 RMK A01 T01780171  RH  096%=      5-min Rain = 0
KWA1 231338Z 10007KT 18/17 A3002 RMK A01 T01780171  RH  096%=      5-min Rain = 0
KWA1 231339Z 10007KT 18/17 A3002 RMK A01 T01780171  RH  095%=      5-min Rain = 0
KWA1 231340Z 10007KT 18/17 A3002 RMK A01 T01780170  RH  095%=      5-min Rain = 0
KWA1 231341Z 09006KT 18/17 A3001 RMK A01 T01790171  RH  095%=      5-min Rain = 0
KWA1 231342Z 10007KT 18/17 A3002 RMK A01 T01790171  RH  095%=      5-min Rain = 0
KWA1 231343Z 10007KT 18/17 A3002 RMK A01 T01790171  RH  095%=      5-min Rain = 0
KWA1 231344Z 09007KT 18/17 A3002 RMK A01 T01790171  RH  095%=      5-min Rain = 0
KWA1 231345Z 10008KT 18/17 A3002 RMK A01 T01780170  RH  095%=      5-min Rain = 0
KWA1 231346Z 10007KT 18/17 A3002 RMK A01 T01790170  RH  095%=      5-min Rain = 0
KWA1 231347Z 10008KT 18/17 A3002 RMK A01 T01790170  RH  095%=      5-min Rain = 0
KWA1 231348Z 10007KT 18/17 A3002 RMK A01 T01790170  RH  095%=      5-min Rain = 0
KWA1 231349Z 09006KT 18/17 A3002 RMK A01 T01790171  RH  095%=      5-min Rain = 0
KWA1 231350Z 09007KT 18/17 A3002 RMK A01 T01790171  RH  095%=      5-min Rain = 0
KWA1 231351Z 10007KT 18/17 A3002 RMK A01 T01790171  RH  095%=      5-min Rain = 0
KWA1 231352Z 10008KT 18/17 A3002 RMK A01 T01790170  RH  095%=      5-min Rain = 0
KWA1 231353Z 10008KT 18/17 A3002 RMK A01 T01790170  RH  095%=      5-min Rain = 0
KWA1 231354Z 10007KT 18/17 A3002 RMK A01 T01790170  RH  095%=      5-min Rain = 0
KWA1 231355Z 10007KT 18/17 A3002 RMK A01 T01790171  RH  095%=      5-min Rain = 0
KWA1 231356Z 10007KT 18/17 A3002 RMK A01 T01790171  RH  095%=      5-min Rain = 0
KWA1 231357Z 10007KT 18/17 A3002 RMK A01 T01800171  RH  095%=      5-min Rain = 0
KWA1 231358Z 10007KT 18/17 A3002 RMK A01 T01800171  RH  095%=      5-min Rain = 0
KWA1 231359Z 10007KT 18/17 A3002 RMK A01 T01800171  RH  095%=      5-min Rain = 0
KWA1 231400Z 10007KT 18/17 A3002 RMK A01 T01800171  RH  095%=      5-min Rain = 0
KWA1 231401Z 10006KT 18/17 A3002 RMK A01 T01800171  RH  095%=      5-min Rain = 0
KWA1 231402Z 10008KT 18/17 A3002 RMK A01 T01800171  RH  095%=      5-min Rain = 0
KWA1 231403Z 10008KT 18/17 A3002 RMK A01 T01800171  RH  095%=      5-min Rain = 0
KWA1 231404Z 10008KT 18/17 A3002 RMK A01 T01800171  RH  095%=      5-min Rain = 0
KWA1 231405Z 10007KT 18/17 A3002 RMK A01 T01800171  RH  094%=      5-min Rain = 0
KWA1 231406Z 11008KT 18/17 A3002 RMK A01 T01800171  RH  095%=      5-min Rain = 0
KWA1 231407Z 10006KT 18/17 A3002 RMK A01 T01790170  RH  094%=      5-min Rain = 0
KWA1 231408Z 11007KT 18/17 A3002 RMK A01 T01800171  RH  095%=      5-min Rain = 0
KWA1 231409Z 11007KT 18/17 A3002 RMK A01 T01800171  RH  094%=      5-min Rain = 0
KWA1 231410Z 11007KT 18/17 A3002 RMK A01 T01800172  RH  095%=      5-min Rain = 0
KWA1 231411Z 11007KT 18/17 A3002 RMK A01 T01800171  RH  095%=      5-min Rain = 0
KWA1 231412Z 10007KT 18/17 A3002 RMK A01 T01810172  RH  095%=      5-min Rain = 0
KWA1 231413Z 10008KT 18/17 A3002 RMK A01 T01810171  RH  094%=      5-min Rain = 0
KWA1 231414Z 11008KT 18/17 A3001 RMK A01 T01810171  RH  094%=      5-min Rain = 0
KWA1 231415Z 11009KT 18/17 A3001 RMK A01 T01800171  RH  094%=      5-min Rain = 0
KWA1 231416Z 11008KT 18/17 A3001 RMK A01 T01810171  RH  094%=      5-min Rain = 0
KWA1 231417Z 11008KT 18/17 A3001 RMK A01 T01810171  RH  094%=      5-min Rain = 0
KWA1 231418Z 11008KT 18/17 A3001 RMK A01 T01810171  RH  094%=      5-min Rain = 0
KWA1 231419Z 11009KT 18/17 A3001 RMK A01 T01810172  RH  094%=      5-min Rain = 0
KWA1 231420Z 11008KT 18/17 A3001 RMK A01 T01820172  RH  094%=      5-min Rain = 0
KWA1 231421Z 11009KT 18/17 A3001 RMK A01 T01830173  RH  094%=      5-min Rain = 0
KWA1 231422Z 11009KT 18/17 A3002 RMK A01 T01820171  RH  093%=      5-min Rain = 0
KWA1 231423Z 11009KT 18/17 A3002 RMK A01 T01820172  RH  093%=      5-min Rain = 0
KWA1 231424Z 11008KT 18/17 A3002 RMK A01 T01830171  RH  093%=      5-min Rain = 0
KWA1 231425Z 11009KT 18/17 A3002 RMK A01 T01820171  RH  093%=      5-min Rain = 0
KWA1 231426Z 11009KT 18/17 A3002 RMK A01 T01830171  RH  093%=      5-min Rain = 0
KWA1 231427Z 12010KT 18/17 A3002 RMK A01 T01830171  RH  093%=      5-min Rain = 0
KWA1 231428Z 12009KT 18/17 A3002 RMK A01 T01830172  RH  093%=      5-min Rain = 0
KWA1 231429Z 12009KT 18/17 A3002 RMK A01 T01830173  RH  094%=      5-min Rain = 0
KWA1 231430Z 12009KT 18/17 A3002 RMK A01 T01830173  RH  093%=      5-min Rain = 0
KWA1 231431Z 12009KT 18/17 A3002 RMK A01 T01840172  RH  093%=      5-min Rain = 0
KWA1 231432Z 12008KT 18/17 A3002 RMK A01 T01840172  RH  093%=      5-min Rain = 0
KWA1 231433Z 13008KT 18/17 A3002 RMK A01 T01840173  RH  093%=      5-min Rain = 0
KWA1 231434Z 12010KT 18/17 A3002 RMK A01 T01840172  RH  093%=      5-min Rain = 0
KWA1 231435Z 12010KT 18/17 A3002 RMK A01 T01840172  RH  093%=      5-min Rain = 0
KWA1 231436Z 12009KT 18/17 A3002 RMK A01 T01840172  RH  093%=      5-min Rain = 0
KWA1 231437Z 13008KT 18/17 A3002 RMK A01 T01840171  RH  093%=      5-min Rain = 0
KWA1 231438Z 12007KT 18/17 A3002 RMK A01 T01840172  RH  093%=      5-min Rain = 0
KWA1 231439Z 12008KT 19/17 A3002 RMK A01 T01850173  RH  093%=      5-min Rain = 0
KWA1 231440Z 12009KT 19/17 A3002 RMK A01 T01850172  RH  092%=      5-min Rain = 0
KWA1 231441Z 12009KT 19/17 A3002 RMK A01 T01850173  RH  093%=      5-min Rain = 0
KWA1 231442Z 12009KT 19/17 A3002 RMK A01 T01850173  RH  092%=      5-min Rain = 0
KWA1 231443Z 12009KT 19/17 A3002 RMK A01 T01850172  RH  092%=      5-min Rain = 0
KWA1 231444Z 12008KT 19/17 A3002 RMK A01 T01850172  RH  092%=      5-min Rain = 0
KWA1 231445Z 12009KT 19/17 A3002 RMK A01 T01850171  RH  092%=      5-min Rain = 0
KWA1 231446Z 12009KT 18/17 A3002 RMK A01 T01840171  RH  092%=      5-min Rain = 0
KWA1 231447Z 12009KT 19/17 A3002 RMK A01 T01850173  RH  093%=      5-min Rain = 0
KWA1 231448Z 12010KT 19/17 A3002 RMK A01 T01850172  RH  092%=      5-min Rain = 0
KWA1 231449Z 13009KT 19/17 A3002 RMK A01 T01850171  RH  092%=      5-min Rain = 0
KWA1 231450Z 12009KT 19/17 A3002 RMK A01 T01850172  RH  092%=      5-min Rain = 0
KWA1 231451Z 12008KT 19/17 A3002 RMK A01 T01850172  RH  092%=      5-min Rain = 0
KWA1 231452Z 13009KT 19/17 A3002 RMK A01 T01860173  RH  092%=      5-min Rain = 0
KWA1 231453Z 12009KT 19/17 A3002 RMK A01 T01850172  RH  092%=      5-min Rain = 0
KWA1 231454Z 12009KT 19/17 A3002 RMK A01 T01860172  RH  092%=      5-min Rain = 0
KWA1 231455Z 12010KT 19/17 A3002 RMK A01 T01860172  RH  092%=      5-min Rain = 0
KWA1 231456Z 12009KT 19/17 A3002 RMK A01 T01860172  RH  092%=      5-min Rain = 0
KWA1 231457Z 12009KT 19/17 A3002 RMK A01 T01860173  RH  092%=      5-min Rain = 0
KWA1 231458Z 12009KT 19/17 A3002 RMK A01 T01860172  RH  092%=      5-min Rain = 0
KWA1 231459Z 12009KT 19/17 A3002 RMK A01 T01870172  RH  091%=      5-min Rain = 0
KWA1 231500Z 12008KT 19/17 A3002 RMK A01 T01870172  RH  091%=      5-min Rain = 0
KWA1 231501Z 12009KT 19/17 A3002 RMK A01 T01870173  RH  092%=      5-min Rain = 0
KWA1 231502Z 12009KT 19/17 A3002 RMK A01 T01870173  RH  091%=      5-min Rain = 0
KWA1 231503Z 12008KT 19/17 A3002 RMK A01 T01870172  RH  091%=      5-min Rain = 0
KWA1 231504Z 13008KT 19/17 A3002 RMK A01 T01880173  RH  091%=      5-min Rain = 0
KWA1 231505Z 13010KT 19/17 A3002 RMK A01 T01880173  RH  091%=      5-min Rain = 0
KWA1 231506Z 13009KT 19/17 A3002 RMK A01 T01880172  RH  090%=      5-min Rain = 0
KWA1 231507Z 13010KT 19/17 A3002 RMK A01 T01880172  RH  090%=      5-min Rain = 0
KWA1 231508Z 13010KT 19/17 A3002 RMK A01 T01880172  RH  090%=      5-min Rain = 0
KWA1 231509Z 13008KT 19/17 A3002 RMK A01 T01880172  RH  090%=      5-min Rain = 0
KWA1 231510Z 13009KT 19/17 A3002 RMK A01 T01890173  RH  091%=      5-min Rain = 0
KWA1 231511Z 13009KT 19/17 A3002 RMK A01 T01890171  RH  090%=      5-min Rain = 0
KWA1 231512Z 13009KT 19/17 A3002 RMK A01 T01880172  RH  090%=      5-min Rain = 0
KWA1 231513Z 13008KT 19/17 A3002 RMK A01 T01890172  RH  090%=      5-min Rain = 0
KWA1 231514Z 13009KT 19/17 A3002 RMK A01 T01890172  RH  090%=      5-min Rain = 0
KWA1 231515Z 13009KT 19/17 A3002 RMK A01 T01890172  RH  090%=      5-min Rain = 0
KWA1 231516Z 13008KT 19/17 A3002 RMK A01 T01890171  RH  090%=      5-min Rain = 0
KWA1 231517Z 13008KT 19/17 A3002 RMK A01 T01890172  RH  090%=      5-min Rain = 0
KWA1 231518Z 13009KT 19/17 A3002 RMK A01 T01890172  RH  090%=      5-min Rain = 0
KWA1 231519Z 12009KT 19/17 A3003 RMK A01 T01890172  RH  090%=      5-min Rain = 0
KWA1 231520Z 13008KT 19/17 A3003 RMK A01 T01890171  RH  089%=      5-min Rain = 0
KWA1 231521Z 12007KT 19/17 A3003 RMK A01 T01890172  RH  090%=      5-min Rain = 0
KWA1 231522Z 13007KT 19/17 A3003 RMK A01 T01890173  RH  090%=      5-min Rain = 0
KWA1 231523Z 13006KT 19/17 A3003 RMK A01 T01890173  RH  090%=      5-min Rain = 0
KWA1 231524Z 13006KT 19/17 A3003 RMK A01 T01900173  RH  090%=      5-min Rain = 0
KWA1 231525Z 14005KT 19/17 A3003 RMK A01 T01910174  RH  090%=      5-min Rain = 0
KWA1 231526Z 14005KT 19/17 A3003 RMK A01 T01910174  RH  090%=      5-min Rain = 0
KWA1 231527Z 14006KT 19/17 A3003 RMK A01 T01920174  RH  089%=      5-min Rain = 0
KWA1 231528Z 13007KT 19/17 A3003 RMK A01 T01920174  RH  089%=      5-min Rain = 0
KWA1 231529Z 12008KT 19/17 A3003 RMK A01 T01920173  RH  088%=      5-min Rain = 0
KWA1 231530Z 12008KT 19/17 A3003 RMK A01 T01920173  RH  088%=      5-min Rain = 0
KWA1 231531Z 13008KT 19/17 A3003 RMK A01 T01920173  RH  088%=      5-min Rain = 0
KWA1 231532Z 14006KT 19/17 A3003 RMK A01 T01930173  RH  089%=      5-min Rain = 0
KWA1 231533Z 14007KT 19/17 A3003 RMK A01 T01930174  RH  089%=      5-min Rain = 0
KWA1 231534Z 15008KT 19/17 A3003 RMK A01 T01930173  RH  088%=      5-min Rain = 0
KWA1 231535Z 14007KT 19/17 A3003 RMK A01 T01930172  RH  087%=      5-min Rain = 0
KWA1 231536Z 13009KT 19/17 A3003 RMK A01 T01940173  RH  088%=      5-min Rain = 0
KWA1 231537Z 13007KT 19/17 A3003 RMK A01 T01940172  RH  087%=      5-min Rain = 0
KWA1 231538Z 13008KT 19/17 A3003 RMK A01 T01940173  RH  087%=      5-min Rain = 0
KWA1 231539Z 13008KT 19/17 A3003 RMK A01 T01940172  RH  087%=      5-min Rain = 0
KWA1 231540Z 13008KT 20/17 A3003 RMK A01 T01950173  RH  087%=      5-min Rain = 0
KWA1 231541Z 12008KT 20/17 A3003 RMK A01 T01950174  RH  088%=      5-min Rain = 0
KWA1 231542Z 13007KT 20/17 A3003 RMK A01 T01960173  RH  087%=      5-min Rain = 0
KWA1 231543Z 14007KT 20/17 A3003 RMK A01 T01960174  RH  087%=      5-min Rain = 0
KWA1 231544Z 13007KT 20/17 A3003 RMK A01 T01960173  RH  087%=      5-min Rain = 0
KWA1 231545Z 12008KT 20/17 A3003 RMK A01 T01960174  RH  087%=      5-min Rain = 0
KWA1 231546Z 13006KT 20/17 A3003 RMK A01 T01960172  RH  086%=      5-min Rain = 0
KWA1 231547Z 12008KT 20/17 A3003 RMK A01 T01960173  RH  087%=      5-min Rain = 0
KWA1 231548Z 12008KT 20/18 A3003 RMK A01 T01970175  RH  087%=      5-min Rain = 0
KWA1 231549Z 12008KT 20/17 A3003 RMK A01 T01980174  RH  086%=      5-min Rain = 0
KWA1 231550Z 13007KT 20/17 A3003 RMK A01 T01980174  RH  086%=      5-min Rain = 0
KWA1 231551Z 12007KT 20/18 A3003 RMK A01 T01980175  RH  087%=      5-min Rain = 0
KWA1 231552Z 14007KT 20/18 A3003 RMK A01 T01990175  RH  086%=      5-min Rain = 0
KWA1 231553Z 13007KT 20/17 A3003 RMK A01 T01990173  RH  085%=      5-min Rain = 0
KWA1 231554Z 14007KT 20/17 A3003 RMK A01 T01990172  RH  085%=      5-min Rain = 0
KWA1 231555Z 14007KT 20/17 A3003 RMK A01 T01990174  RH  085%=      5-min Rain = 0
KWA1 231556Z 14006KT 20/17 A3003 RMK A01 T02000173  RH  084%=      5-min Rain = 0
KWA1 231557Z 15007KT 20/17 A3003 RMK A01 T02000172  RH  084%=      5-min Rain = 0
KWA1 231558Z 14007KT 20/17 A3003 RMK A01 T02000172  RH  084%=      5-min Rain = 0
KWA1 231559Z 14006KT 20/17 A3003 RMK A01 T02010172  RH  084%=      5-min Rain = 0
KWA1 231600Z 14006KT 20/17 A3003 RMK A01 T02010174  RH  084%=      5-min Rain = 0
KWA1 231601Z 15007KT 20/17 A3003 RMK A01 T02020173  RH  084%=      5-min Rain = 0
KWA1 231602Z 14006KT 20/17 A3003 RMK A01 T02020173  RH  084%=      5-min Rain = 0
KWA1 231603Z 12006KT 20/17 A3003 RMK A01 T02020173  RH  083%=      5-min Rain = 0
KWA1 231604Z 12007KT 20/17 A3003 RMK A01 T02020174  RH  084%=      5-min Rain = 0
KWA1 231605Z 13007KT 20/17 A3003 RMK A01 T02010173  RH  084%=      5-min Rain = 0
KWA1 231606Z 15007KT 20/17 A3003 RMK A01 T02020173  RH  084%=      5-min Rain = 0
KWA1 231607Z 15008KT 20/17 A3003 RMK A01 T02020172  RH  083%=      5-min Rain = 0
KWA1 231608Z 14007KT 20/17 A3003 RMK A01 T02030172  RH  083%=      5-min Rain = 0
KWA1 231609Z 15007KT 20/17 A3003 RMK A01 T02030173  RH  083%=      5-min Rain = 0
KWA1 231610Z 14007KT 20/17 A3003 RMK A01 T02030173  RH  083%=      5-min Rain = 0
KWA1 231611Z 14006KT 20/17 A3003 RMK A01 T02030171  RH  082%=      5-min Rain = 0
KWA1 231612Z 15006KT 20/17 A3003 RMK A01 T02030172  RH  082%=      5-min Rain = 0
KWA1 231613Z 15006KT 20/17 A3003 RMK A01 T02030173  RH  083%=      5-min Rain = 0
KWA1 231614Z 15008KT 20/17 A3003 RMK A01 T02030172  RH  083%=      5-min Rain = 0
KWA1 231615Z 14008KT 20/17 A3003 RMK A01 T02030172  RH  082%=      5-min Rain = 0
KWA1 231616Z 15008KT 20/17 A3003 RMK A01 T02030172  RH  082%=      5-min Rain = 0
KWA1 231617Z 14007KT 20/17 A3003 RMK A01 T02040173  RH  082%=      5-min Rain = 0
KWA1 231618Z 14007KT 20/17 A3003 RMK A01 T02040173  RH  082%=      5-min Rain = 0
KWA1 231619Z 13006KT 20/17 A3003 RMK A01 T02040173  RH  082%=      5-min Rain = 0
KWA1 231620Z 13006KT 20/17 A3003 RMK A01 T02040173  RH  082%=      5-min Rain = 0
KWA1 231621Z 13007KT 21/17 A3003 RMK A01 T02050173  RH  082%=      5-min Rain = 0
KWA1 231622Z 14008KT 20/17 A3003 RMK A01 T02040172  RH  082%=      5-min Rain = 0
KWA1 231623Z 15008KT 20/17 A3003 RMK A01 T02040172  RH  082%=      5-min Rain = 0
KWA1 231624Z 16009KT 20/17 A3003 RMK A01 T02040171  RH  081%=      5-min Rain = 0
KWA1 231625Z 17009KT 20/17 A3003 RMK A01 T02040171  RH  081%=      5-min Rain = 0
KWA1 231626Z 17008KT 20/17 A3003 RMK A01 T02040171  RH  081%=      5-min Rain = 0
KWA1 231627Z 15008KT 21/17 A3003 RMK A01 T02050171  RH  081%=      5-min Rain = 0
KWA1 231628Z 16010KT 21/17 A3003 RMK A01 T02050172  RH  081%=      5-min Rain = 0
KWA1 231629Z 16008KT 21/17 A3003 RMK A01 T02050171  RH  081%=      5-min Rain = 0
KWA1 231630Z 17008KT 21/17 A3003 RMK A01 T02050171  RH  081%=      5-min Rain = 0
KWA1 231631Z 16008KT 21/17 A3003 RMK A01 T02050170  RH  080%=      5-min Rain = 0
KWA1 231632Z 16009KT 21/17 A3003 RMK A01 T02050170  RH  080%=      5-min Rain = 0
KWA1 231633Z 16009KT 21/17 A3003 RMK A01 T02060170  RH  080%=      5-min Rain = 0
KWA1 231634Z 15009KT 21/17 A3003 RMK A01 T02060170  RH  080%=      5-min Rain = 0
KWA1 231635Z 15008KT 21/17 A3003 RMK A01 T02060170  RH  080%=      5-min Rain = 0
KWA1 231636Z 15007KT 21/17 A3003 RMK A01 T02060171  RH  080%=      5-min Rain = 0
KWA1 231637Z 14006KT 21/17 A3003 RMK A01 T02060172  RH  080%=      5-min Rain = 0
KWA1 231638Z 13009KT 21/17 A3003 RMK A01 T02070172  RH  080%=      5-min Rain = 0
KWA1 231639Z 13009KT 21/17 A3003 RMK A01 T02070170  RH  079%=      5-min Rain = 0
KWA1 231640Z 13009KT 21/17 A3002 RMK A01 T02070170  RH  079%=      5-min Rain = 0
KWA1 231641Z 13008KT 21/17 A3002 RMK A01 T02060169  RH  079%=      5-min Rain = 0
KWA1 231642Z 13006KT 21/17 A3002 RMK A01 T02060171  RH  080%=      5-min Rain = 0
KWA1 231643Z 13007KT 21/17 A3002 RMK A01 T02060171  RH  080%=      5-min Rain = 0
KWA1 231644Z 12007KT 21/17 A3002 RMK A01 T02060170  RH  080%=      5-min Rain = 0
KWA1 231645Z 11007KT 21/17 A3002 RMK A01 T02060171  RH  080%=      5-min Rain = 0
KWA1 231646Z 11006KT 21/17 A3002 RMK A01 T02060171  RH  080%=      5-min Rain = 0
KWA1 231647Z 11007KT 21/17 A3002 RMK A01 T02060170  RH  080%=      5-min Rain = 0
KWA1 231648Z 10006KT 21/17 A3002 RMK A01 T02050169  RH  080%=      5-min Rain = 0
KWA1 231649Z 12007KT 21/17 A3002 RMK A01 T02050170  RH  080%=      5-min Rain = 0
KWA1 231650Z 12006KT 21/17 A3002 RMK A01 T02050169  RH  080%=      5-min Rain = 0
KWA1 231651Z 12007KT 21/17 A3002 RMK A01 T02050170  RH  080%=      5-min Rain = 0
KWA1 231652Z 12007KT 21/17 A3002 RMK A01 T02060169  RH  079%=      5-min Rain = 0
KWA1 231653Z 13007KT 21/17 A3002 RMK A01 T02060168  RH  079%=      5-min Rain = 0
KWA1 231654Z 13007KT 21/17 A3002 RMK A01 T02060168  RH  079%=      5-min Rain = 0
KWA1 231655Z 12007KT 21/17 A3002 RMK A01 T02060167  RH  079%=      5-min Rain = 0
KWA1 231656Z 11007KT 21/17 A3002 RMK A01 T02060168  RH  079%=      5-min Rain = 0
KWA1 231657Z 12006KT 21/17 A3002 RMK A01 T02060169  RH  079%=      5-min Rain = 0
KWA1 231658Z 13008KT 21/17 A3002 RMK A01 T02070169  RH  079%=      5-min Rain = 0
KWA1 231659Z 12007KT 21/17 A3002 RMK A01 T02070168  RH  078%=      5-min Rain = 0
KWA1 231700Z 12007KT 21/17 A3002 RMK A01 T02070168  RH  079%=      5-min Rain = 0
KWA1 231701Z 12006KT 21/17 A3002 RMK A01 T02070168  RH  079%=      5-min Rain = 0
KWA1 231702Z 13006KT 21/17 A3002 RMK A01 T02070170  RH  079%=      5-min Rain = 0
KWA1 231703Z 13006KT 21/17 A3002 RMK A01 T02070169  RH  079%=      5-min Rain = 0
KWA1 231704Z 13006KT 21/17 A3002 RMK A01 T02080168  RH  078%=      5-min Rain = 0
KWA1 231705Z 12007KT 21/17 A3002 RMK A01 T02080170  RH  079%=      5-min Rain = 0
KWA1 231706Z 12006KT 21/17 A3002 RMK A01 T02080171  RH  079%=      5-min Rain = 0
KWA1 231707Z 12005KT 21/17 A3002 RMK A01 T02090169  RH  078%=      5-min Rain = 0
KWA1 231708Z 12006KT 21/17 A3002 RMK A01 T02080169  RH  078%=      5-min Rain = 0
KWA1 231709Z 12006KT 21/17 A3002 RMK A01 T02080170  RH  079%=      5-min Rain = 0
KWA1 231710Z 11005KT 21/17 A3002 RMK A01 T02080170  RH  079%=      5-min Rain = 0
KWA1 231711Z 12006KT 21/17 A3002 RMK A01 T02080170  RH  079%=      5-min Rain = 0
KWA1 231712Z 12007KT 21/17 A3002 RMK A01 T02080169  RH  078%=      5-min Rain = 0
KWA1 231713Z 12006KT 21/17 A3002 RMK A01 T02090170  RH  078%=      5-min Rain = 0
KWA1 231714Z 12006KT 21/17 A3002 RMK A01 T02090170  RH  078%=      5-min Rain = 0
KWA1 231715Z 13007KT 21/17 A3002 RMK A01 T02090169  RH  078%=      5-min Rain = 0
KWA1 231716Z 12006KT 21/17 A3002 RMK A01 T02090167  RH  077%=      5-min Rain = 0
KWA1 231717Z 13006KT 21/17 A3002 RMK A01 T02080167  RH  077%=      5-min Rain = 0
KWA1 231718Z 13006KT 21/17 A3002 RMK A01 T02080167  RH  077%=      5-min Rain = 0
KWA1 231719Z 13005KT 21/17 A3002 RMK A01 T02090168  RH  077%=      5-min Rain = 0
KWA1 231720Z 12006KT 21/17 A3002 RMK A01 T02100168  RH  077%=      5-min Rain = 0
KWA1 231721Z 12006KT 21/17 A3002 RMK A01 T02090168  RH  077%=      5-min Rain = 0
KWA1 231722Z 14006KT 21/17 A3002 RMK A01 T02100170  RH  078%=      5-min Rain = 0
KWA1 231723Z 14006KT 21/17 A3002 RMK A01 T02100169  RH  077%=      5-min Rain = 0
KWA1 231724Z 13006KT 21/17 A3002 RMK A01 T02110171  RH  078%=      5-min Rain = 0
KWA1 231725Z 13006KT 21/17 A3002 RMK A01 T02110169  RH  077%=      5-min Rain = 0
KWA1 231726Z 14005KT 21/17 A3002 RMK A01 T02110170  RH  077%=      5-min Rain = 0
KWA1 231727Z 15006KT 21/17 A3002 RMK A01 T02120170  RH  077%=      5-min Rain = 0
KWA1 231728Z 14006KT 21/17 A3002 RMK A01 T02120171  RH  077%=      5-min Rain = 0
KWA1 231729Z 13008KT 21/17 A3002 RMK A01 T02130171  RH  077%=      5-min Rain = 0
KWA1 231730Z 12006KT 21/17 A3002 RMK A01 T02130170  RH  076%=      5-min Rain = 0
KWA1 231731Z 12006KT 21/17 A3002 RMK A01 T02130170  RH  077%=      5-min Rain = 0
KWA1 231732Z 13006KT 21/17 A3002 RMK A01 T02130170  RH  077%=      5-min Rain = 0
KWA1 231733Z 13006KT 21/17 A3002 RMK A01 T02130169  RH  076%=      5-min Rain = 0
KWA1 231734Z 12006KT 21/17 A3002 RMK A01 T02130170  RH  076%=      5-min Rain = 0
KWA1 231735Z 13006KT 21/17 A3002 RMK A01 T02130170  RH  076%=      5-min Rain = 0
KWA1 231736Z 13006KT 21/17 A3002 RMK A01 T02130168  RH  076%=      5-min Rain = 0
KWA1 231737Z 13006KT 21/17 A3002 RMK A01 T02120169  RH  076%=      5-min Rain = 0
KWA1 231738Z 12005KT 21/17 A3002 RMK A01 T02130170  RH  076%=      5-min Rain = 0
KWA1 231739Z 12005KT 21/17 A3002 RMK A01 T02130167  RH  075%=      5-min Rain = 0
KWA1 231740Z 12005KT 21/17 A3002 RMK A01 T02130168  RH  075%=      5-min Rain = 0
KWA1 231741Z 12004KT 21/17 A3002 RMK A01 T02130166  RH  075%=      5-min Rain = 0
KWA1 231742Z 13006KT 21/17 A3001 RMK A01 T02130169  RH  076%=      5-min Rain = 0
KWA1 231743Z 12005KT 21/17 A3001 RMK A01 T02130168  RH  076%=      5-min Rain = 0
KWA1 231744Z 13008KT 21/17 A3001 RMK A01 T02130169  RH  076%=      5-min Rain = 0
KWA1 231745Z 13007KT 21/17 A3001 RMK A01 T02140168  RH  075%=      5-min Rain = 0
KWA1 231746Z 13007KT 21/17 A3001 RMK A01 T02140167  RH  075%=      5-min Rain = 0
KWA1 231747Z 13006KT 21/17 A3001 RMK A01 T02140169  RH  076%=      5-min Rain = 0
KWA1 231748Z 14006KT 21/17 A3001 RMK A01 T02140170  RH  076%=      5-min Rain = 0
KWA1 231749Z 13007KT 21/17 A3001 RMK A01 T02140170  RH  076%=      5-min Rain = 0
KWA1 231750Z 12006KT 22/17 A3001 RMK A01 T02150170  RH  076%=      5-min Rain = 0
KWA1 231751Z 12005KT 22/17 A3001 RMK A01 T02160168  RH  074%=      5-min Rain = 0
KWA1 231752Z 14007KT 22/17 A3001 RMK A01 T02160171  RH  075%=      5-min Rain = 0
KWA1 231753Z 15007KT 22/17 A3001 RMK A01 T02160169  RH  075%=      5-min Rain = 0
KWA1 231754Z 15007KT 22/17 A3001 RMK A01 T02160168  RH  074%=      5-min Rain = 0
KWA1 231755Z 15007KT 22/17 A3001 RMK A01 T02160168  RH  074%=      5-min Rain = 0
KWA1 231756Z 14007KT 22/17 A3001 RMK A01 T02160169  RH  075%=      5-min Rain = 0
KWA1 231757Z 13007KT 22/17 A3001 RMK A01 T02160168  RH  074%=      5-min Rain = 0
KWA1 231758Z 13007KT 22/17 A3001 RMK A01 T02150167  RH  074%=      5-min Rain = 0
KWA1 231759Z 14006KT 22/17 A3001 RMK A01 T02150168  RH  075%=      5-min Rain = 0
KWA1 231800Z 13007KT 22/17 A3001 RMK A01 T02150169  RH  075%=      5-min Rain = 0
KWA1 231801Z 14006KT 22/17 A3001 RMK A01 T02160169  RH  075%=      5-min Rain = 0
KWA1 231802Z 14006KT 22/17 A3001 RMK A01 T02160167  RH  074%=      5-min Rain = 0
KWA1 231803Z 15006KT 22/17 A3001 RMK A01 T02160167  RH  074%=      5-min Rain = 0
KWA1 231804Z 13006KT 22/17 A3001 RMK A01 T02170170  RH  074%=      5-min Rain = 0
KWA1 231805Z 14006KT 22/17 A3001 RMK A01 T02180168  RH  073%=      5-min Rain = 0
KWA1 231806Z 14005KT 22/17 A3001 RMK A01 T02180169  RH  074%=      5-min Rain = 0
KWA1 231807Z 13007KT 22/17 A3001 RMK A01 T02180169  RH  074%=      5-min Rain = 0
KWA1 231808Z 14006KT 22/17 A3001 RMK A01 T02190170  RH  074%=      5-min Rain = 0
KWA1 231809Z 14007KT 22/17 A3001 RMK A01 T02180171  RH  074%=      5-min Rain = 0
KWA1 231810Z 13005KT 22/17 A3001 RMK A01 T02190169  RH  073%=      5-min Rain = 0
KWA1 231811Z 13006KT 22/17 A30 RMK A01 T02190173  RH  075%=      5-min Rain = 0
KWA1 231812Z 12005KT 22/17 A30 RMK A01 T02190169  RH  073%=      5-min Rain = 0
KWA1 231813Z 11006KT 22/17 A30 RMK A01 T02200171  RH  074%=      5-min Rain = 0
KWA1 231814Z 12005KT 22/17 A30 RMK A01 T02200168  RH  073%=      5-min Rain = 0
KWA1 231815Z 14007KT 22/17 A30 RMK A01 T02200171  RH  074%=      5-min Rain = 0
KWA1 231816Z 14006KT 22/17 A30 RMK A01 T02210169  RH  072%=      5-min Rain = 0
KWA1 231817Z 14005KT 22/17 A30 RMK A01 T02210169  RH  072%=      5-min Rain = 0
KWA1 231818Z 14005KT 22/17 A30 RMK A01 T02220169  RH  072%=      5-min Rain = 0
KWA1 231819Z 15005KT 22/17 A30 RMK A01 T02220168  RH  071%=      5-min Rain = 0
KWA1 231820Z 12007KT 22/17 A30 RMK A01 T02220170  RH  072%=      5-min Rain = 0
KWA1 231821Z 13006KT 22/17 A30 RMK A01 T02240167  RH  070%=      5-min Rain = 0
KWA1 231822Z 12004KT 22/17 A30 RMK A01 T02230167  RH  071%=      5-min Rain = 0
KWA1 231823Z 10005KT 22/17 A30 RMK A01 T02240170  RH  072%=      5-min Rain = 0.01
KWA1 231824Z 10005KT 22/17 A30 RMK A01 T02240167  RH  070%=      5-min Rain = 0
KWA1 231825Z 12006KT 22/17 A30 RMK A01 T02230167  RH  071%=      5-min Rain = 0
KWA1 231826Z 13005KT 22/17 A30 RMK A01 T02230165  RH  069%=      5-min Rain = 0
KWA1 231827Z 13003KT 22/16 A30 RMK A01 T02230164  RH  069%=      5-min Rain = 0
KWA1 231828Z 12004KT 22/17 A30 RMK A01 T02220166  RH  071%=      5-min Rain = 0
KWA1 231829Z 12003KT 22/17 A30 RMK A01 T02230168  RH  071%=      5-min Rain = 0
KWA1 231830Z 11005KT 22/17 A30 RMK A01 T02240166  RH  069%=      5-min Rain = 0
KWA1 231831Z 14006KT 22/17 A30 RMK A01 T02240168  RH  071%=      5-min Rain = 0
KWA1 231832Z 16004KT 23/17 A30 RMK A01 T02250168  RH  070%=      5-min Rain = 0
KWA1 231833Z 14003KT 22/17 A30 RMK A01 T02240168  RH  070%=      5-min Rain = 0
KWA1 231834Z 11004KT 23/17 A30 RMK A01 T02250170  RH  071%=      5-min Rain = 0
KWA1 231835Z 11005KT 23/17 A30 RMK A01 T02260166  RH  069%=      5-min Rain = 0
KWA1 231836Z 14004KT 23/17 A30 RMK A01 T02260167  RH  069%=      5-min Rain = 0
KWA1 231837Z 13004KT 23/17 A30 RMK A01 T02260168  RH  070%=      5-min Rain = 0
KWA1 231838Z 13006KT 23/17 A30 RMK A01 T02260165  RH  068%=      5-min Rain = 0
KWA1 231839Z 12005KT 23/17 A30 RMK A01 T02270165  RH  068%=      5-min Rain = 0
KWA1 231840Z 13006KT 23/17 A30 RMK A01 T02260167  RH  069%=      5-min Rain = 0
KWA1 231841Z 15008KT 23/17 A2999 RMK A01 T02270170  RH  070%=      5-min Rain = 0
KWA1 231842Z 15007KT 23/17 A2999 RMK A01 T02280172  RH  071%=      5-min Rain = 0
KWA1 231843Z 15007KT 23/17 A2999 RMK A01 T02290169  RH  069%=      5-min Rain = 0
KWA1 231844Z 14006KT 23/17 A2999 RMK A01 T02290166  RH  068%=      5-min Rain = 0
KWA1 231845Z 14006KT 23/17 A2999 RMK A01 T02280169  RH  069%=      5-min Rain = 0
KWA1 231846Z 16005KT 23/17 A2999 RMK A01 T02300166  RH  067%=      5-min Rain = 0
KWA1 231847Z 15005KT 23/17 A2999 RMK A01 T02290169  RH  069%=      5-min Rain = 0
KWA1 231848Z 15004KT 23/17 A2999 RMK A01 T02300169  RH  068%=      5-min Rain = 0
KWA1 231849Z 12004KT 23/17 A2999 RMK A01 T02300171  RH  069%=      5-min Rain = 0
KWA1 231850Z 13005KT 23/17 A2999 RMK A01 T02300169  RH  069%=      5-min Rain = 0
KWA1 231851Z 12008KT 23/17 A2999 RMK A01 T02290169  RH  069%=      5-min Rain = 0
KWA1 231852Z 12007KT 23/17 A2999 RMK A01 T02300166  RH  067%=      5-min Rain = 0
KWA1 231853Z 13006KT 23/17 A2999 RMK A01 T02300168  RH  068%=      5-min Rain = 0
KWA1 231854Z 13006KT 23/16 A2999 RMK A01 T02290164  RH  067%=      5-min Rain = 0
KWA1 231855Z 14006KT 23/17 A2999 RMK A01 T02290169  RH  069%=      5-min Rain = 0
KWA1 231856Z 14007KT 23/17 A2999 RMK A01 T02320169  RH  068%=      5-min Rain = 0
KWA1 231857Z 16007KT 23/17 A2999 RMK A01 T02330167  RH  067%=      5-min Rain = 0
KWA1 231858Z 13007KT 23/17 A2999 RMK A01 T02320167  RH  067%=      5-min Rain = 0
KWA1 231859Z 13007KT 23/17 A2999 RMK A01 T02320166  RH  066%=      5-min Rain = 0
KWA1 231900Z 12006KT 23/17 A2999 RMK A01 T02320166  RH  066%=      5-min Rain = 0
KWA1 231901Z 13008KT 23/17 A2999 RMK A01 T02320166  RH  066%=      5-min Rain = 0
KWA1 231902Z 13008KT 23/16 A2999 RMK A01 T02330164  RH  065%=      5-min Rain = 0
KWA1 231903Z 14008KT 23/16 A2999 RMK A01 T02330163  RH  065%=      5-min Rain = 0
KWA1 231904Z 14008KT 23/16 A2999 RMK A01 T02310164  RH  066%=      5-min Rain = 0
KWA1 231905Z 15007KT 23/17 A2998 RMK A01 T02300165  RH  067%=      5-min Rain = 0
KWA1 231906Z 15009KT 23/17 A2998 RMK A01 T02300166  RH  067%=      5-min Rain = 0
KWA1 231907Z 15010KT 23/17 A2998 RMK A01 T02300165  RH  067%=      5-min Rain = 0
KWA1 231908Z 15008KT 23/16 A2998 RMK A01 T02310164  RH  066%=      5-min Rain = 0
KWA1 231909Z 14007KT 23/17 A2998 RMK A01 T02310165  RH  066%=      5-min Rain = 0
KWA1 231910Z 14006KT 23/17 A2998 RMK A01 T02300165  RH  067%=      5-min Rain = 0
KWA1 231911Z 15007KT 23/17 A2998 RMK A01 T02300166  RH  067%=      5-min Rain = 0
KWA1 231912Z 15008KT 23/16 A2998 RMK A01 T02300164  RH  066%=      5-min Rain = 0
KWA1 231913Z 14008KT 23/16 A2998 RMK A01 T02310163  RH  066%=      5-min Rain = 0
KWA1 231914Z 15006KT 23/16 A2998 RMK A01 T02310164  RH  066%=      5-min Rain = 0
KWA1 231915Z 14007KT 23/16 A2998 RMK A01 T02300163  RH  066%=      5-min Rain = 0
KWA1 231916Z 13008KT 23/16 A2998 RMK A01 T02310161  RH  065%=      5-min Rain = 0
KWA1 231917Z 13007KT 23/16 A2998 RMK A01 T02310159  RH  064%=      5-min Rain = 0
KWA1 231918Z 14007KT 23/16 A2998 RMK A01 T02300161  RH  065%=      5-min Rain = 0
KWA1 231919Z 13008KT 23/16 A2998 RMK A01 T02290162  RH  066%=      5-min Rain = 0
KWA1 231920Z 12006KT 23/16 A2998 RMK A01 T02290162  RH  066%=      5-min Rain = 0
KWA1 231921Z 13007KT 23/16 A2998 RMK A01 T02290164  RH  066%=      5-min Rain = 0
KWA1 231922Z 12009KT 23/16 A2998 RMK A01 T02300162  RH  065%=      5-min Rain = 0
KWA1 231923Z 13007KT 23/16 A2998 RMK A01 T02310161  RH  065%=      5-min Rain = 0
KWA1 231924Z 15008KT 23/17 A2998 RMK A01 T02320165  RH  066%=      5-min Rain = 0
KWA1 231925Z 15009KT 24/17 A2998 RMK A01 T02350166  RH  065%=      5-min Rain = 0
KWA1 231926Z 15007KT 23/17 A2998 RMK A01 T02340166  RH  065%=      5-min Rain = 0
KWA1 231927Z 15007KT 23/17 A2998 RMK A01 T02330167  RH  066%=      5-min Rain = 0
KWA1 231928Z 15008KT 23/17 A2998 RMK A01 T02320168  RH  067%=      5-min Rain = 0
KWA1 231929Z 15007KT 23/17 A2998 RMK A01 T02320167  RH  067%=      5-min Rain = 0
KWA1 231930Z 14008KT 23/17 A2998 RMK A01 T02320167  RH  067%=      5-min Rain = 0
KWA1 231931Z 13009KT 23/17 A2998 RMK A01 T02320167  RH  067%=      5-min Rain = 0
KWA1 231932Z 13008KT 23/17 A2998 RMK A01 T02310165  RH  067%=      5-min Rain = 0
KWA1 231933Z 13006KT 23/17 A2998 RMK A01 T02300167  RH  068%=      5-min Rain = 0
KWA1 231934Z 15007KT 23/17 A2998 RMK A01 T02300167  RH  068%=      5-min Rain = 0
KWA1 231935Z 14009KT 23/17 A2998 RMK A01 T02310168  RH  068%=      5-min Rain = 0
KWA1 231936Z 14007KT 23/17 A2998 RMK A01 T02320166  RH  067%=      5-min Rain = 0
KWA1 231937Z 14006KT 23/17 A2998 RMK A01 T02320169  RH  068%=      5-min Rain = 0
KWA1 231938Z 13007KT 23/17 A2998 RMK A01 T02320169  RH  067%=      5-min Rain = 0
KWA1 231939Z 13007KT 23/17 A2998 RMK A01 T02320168  RH  067%=      5-min Rain = 0
KWA1 231940Z 14007KT 23/17 A2998 RMK A01 T02310167  RH  067%=      5-min Rain = 0
KWA1 231941Z 13008KT 23/17 A2998 RMK A01 T02300167  RH  067%=      5-min Rain = 0
KWA1 231942Z 14008KT 23/17 A2998 RMK A01 T02310167  RH  067%=      5-min Rain = 0
KWA1 231943Z 14009KT 23/17 A2998 RMK A01 T02320168  RH  067%=      5-min Rain = 0
KWA1 231944Z 14007KT 23/17 A2998 RMK A01 T02320167  RH  067%=      5-min Rain = 0
KWA1 231945Z 15006KT 23/17 A2997 RMK A01 T02320168  RH  067%=      5-min Rain = 0
KWA1 231946Z 17006KT 23/17 A2997 RMK A01 T02320168  RH  067%=      5-min Rain = 0
KWA1 231947Z 17006KT 23/17 A2997 RMK A01 T02320167  RH  067%=      5-min Rain = 0
KWA1 231948Z 14007KT 23/17 A2997 RMK A01 T02330170  RH  068%=      5-min Rain = 0
KWA1 231949Z 14007KT 24/17 A2997 RMK A01 T02350169  RH  066%=      5-min Rain = 0
KWA1 231950Z 14008KT 24/17 A2997 RMK A01 T02360167  RH  065%=      5-min Rain = 0
KWA1 231951Z 13007KT 24/17 A2997 RMK A01 T02360168  RH  066%=      5-min Rain = 0
KWA1 231952Z 13008KT 24/17 A2997 RMK A01 T02360168  RH  066%=      5-min Rain = 0
KWA1 231953Z 12008KT 24/17 A2997 RMK A01 T02350168  RH  066%=      5-min Rain = 0
KWA1 231954Z 14009KT 24/17 A2997 RMK A01 T02350169  RH  066%=      5-min Rain = 0
KWA1 231955Z 13009KT 24/17 A2997 RMK A01 T02370168  RH  065%=      5-min Rain = 0
KWA1 231956Z 13010KT 24/17 A2997 RMK A01 T02370167  RH  065%=      5-min Rain = 0
KWA1 231957Z 13008KT 24/17 A2997 RMK A01 T02370167  RH  065%=      5-min Rain = 0
KWA1 231958Z 13009KT 24/17 A2997 RMK A01 T02370168  RH  065%=      5-min Rain = 0
KWA1 231959Z 14010KT 24/17 A2997 RMK A01 T02380167  RH  064%=      5-min Rain = 0
KWA1 232000Z 14008KT 24/16 A2997 RMK A01 T02390164  RH  063%=      5-min Rain = 0
KWA1 232001Z 14006KT 24/17 A2997 RMK A01 T02380165  RH  064%=      5-min Rain = 0
KWA1 232002Z 12009KT 24/17 A2997 RMK A01 T02380166  RH  064%=      5-min Rain = 0
KWA1 232003Z 12010KT 24/17 A2997 RMK A01 T02390165  RH  064%=      5-min Rain = 0
KWA1 232004Z 12008KT 24/17 A2997 RMK A01 T02410166  RH  063%=      5-min Rain = 0
KWA1 232005Z 14008KT 24/16 A2997 RMK A01 T02420163  RH  062%=      5-min Rain = 0
KWA1 232006Z 14007KT 24/16 A2997 RMK A01 T02410164  RH  062%=      5-min Rain = 0
KWA1 232007Z 13008KT 24/17 A2997 RMK A01 T02420167  RH  063%=      5-min Rain = 0
KWA1 232008Z 11010KT 25/17 A2997 RMK A01 T02450167  RH  062%=      5-min Rain = 0
KWA1 232009Z 11011KT 25/17 A2997 RMK A01 T02460165  RH  061%=      5-min Rain = 0
KWA1 232010Z 11008KT 24/17 A2997 RMK A01 T02440165  RH  061%=      5-min Rain = 0
KWA1 232011Z 14009KT 24/17 A2997 RMK A01 T02430166  RH  062%=      5-min Rain = 0
KWA1 232012Z 16010KT 24/17 A2997 RMK A01 T02440170  RH  063%=      5-min Rain = 0
KWA1 232013Z 16007KT 25/17 A2997 RMK A01 T02450167  RH  062%=      5-min Rain = 0
KWA1 232014Z 14008KT 24/17 A2997 RMK A01 T02440169  RH  063%=      5-min Rain = 0
KWA1 232015Z 14010KT 25/17 A2996 RMK A01 T02450165  RH  061%=      5-min Rain = 0
KWA1 232016Z 13011KT 25/16 A2997 RMK A01 T02450164  RH  061%=      5-min Rain = 0
KWA1 232017Z 13011KT 25/16 A2997 RMK A01 T02450163  RH  060%=      5-min Rain = 0
KWA1 232018Z 13010KT 24/16 A2997 RMK A01 T02440161  RH  060%=      5-min Rain = 0
KWA1 232019Z 14010KT 24/16 A2997 RMK A01 T02430163  RH  061%=      5-min Rain = 0
KWA1 232020Z 14010KT 24/16 A2996 RMK A01 T02420162  RH  061%=      5-min Rain = 0
KWA1 232021Z 13011KT 24/16 A2996 RMK A01 T02440164  RH  061%=      5-min Rain = 0
KWA1 232022Z 13010KT 24/16 A2996 RMK A01 T02440163  RH  061%=      5-min Rain = 0
KWA1 232023Z 13010KT 24/16 A2996 RMK A01 T02420164  RH  061%=      5-min Rain = 0
KWA1 232024Z 13009KT 24/17 A2996 RMK A01 T02430166  RH  062%=      5-min Rain = 0
KWA1 232025Z 13012KT 24/17 A2996 RMK A01 T02440165  RH  061%=      5-min Rain = 0
KWA1 232026Z 13011KT 24/16 A2996 RMK A01 T02440164  RH  061%=      5-min Rain = 0
KWA1 232027Z 13010KT 24/16 A2996 RMK A01 T02430164  RH  061%=      5-min Rain = 0
KWA1 232028Z 14009KT 24/17 A2996 RMK A01 T02420166  RH  062%=      5-min Rain = 0
KWA1 232029Z 14008KT 24/16 A2996 RMK A01 T02440164  RH  061%=      5-min Rain = 0
KWA1 232030Z 13008KT 24/17 A2996 RMK A01 T02420166  RH  063%=      5-min Rain = 0
KWA1 232031Z 13008KT 24/17 A2996 RMK A01 T02410166  RH  063%=      5-min Rain = 0
KWA1 232032Z 14009KT 24/17 A2996 RMK A01 T02400167  RH  064%=      5-min Rain = 0
KWA1 232033Z 16010KT 24/17 A2996 RMK A01 T02420168  RH  063%=      5-min Rain = 0
KWA1 232034Z 15011KT 24/17 A2996 RMK A01 T02440168  RH  062%=      5-min Rain = 0
KWA1 232035Z 15010KT 25/17 A2996 RMK A01 T02460169  RH  062%=      5-min Rain = 0
KWA1 232036Z 13010KT 25/17 A2996 RMK A01 T02470166  RH  061%=      5-min Rain = 0
KWA1 232037Z 14010KT 25/17 A2996 RMK A01 T02460165  RH  060%=      5-min Rain = 0
KWA1 232038Z 14011KT 24/16 A2996 RMK A01 T02440164  RH  061%=      5-min Rain = 0
KWA1 232039Z 14009KT 24/16 A2996 RMK A01 T02420163  RH  061%=      5-min Rain = 0
KWA1 232040Z 14011KT 24/16 A2996 RMK A01 T02420164  RH  062%=      5-min Rain = 0
KWA1 232041Z 13011KT 24/16 A2996 RMK A01 T02420163  RH  061%=      5-min Rain = 0
KWA1 232042Z 14011KT 24/16 A2996 RMK A01 T02420164  RH  062%=      5-min Rain = 0
KWA1 232043Z 15011KT 24/17 A2995 RMK A01 T02420165  RH  062%=      5-min Rain = 0
KWA1 232044Z 15012KT 24/17 A2995 RMK A01 T02420165  RH  062%=      5-min Rain = 0
KWA1 232045Z 14010KT 24/17 A2995 RMK A01 T02420165  RH  062%=      5-min Rain = 0
KWA1 232046Z 15010KT 24/16 A2995 RMK A01 T02410164  RH  062%=      5-min Rain = 0
KWA1 232047Z 16009KT 24/17 A2995 RMK A01 T02410166  RH  063%=      5-min Rain = 0
KWA1 232048Z 15010KT 24/17 A2995 RMK A01 T02420168  RH  063%=      5-min Rain = 0
KWA1 232049Z 16009KT 25/17 A2995 RMK A01 T02470169  RH  062%=      5-min Rain = 0
KWA1 232050Z 15011KT 25/17 A2995 RMK A01 T02480168  RH  061%=      5-min Rain = 0
KWA1 232051Z 15012KT 25/17 A2995 RMK A01 T02490167  RH  060%=      5-min Rain = 0
KWA1 232052Z 15011KT 25/17 A2995 RMK A01 T02500165  RH  059%=      5-min Rain = 0
KWA1 232053Z 16009KT 25/17 A2995 RMK A01 T02490169  RH  061%=      5-min Rain = 0
KWA1 232054Z 13011KT 25/17 A2995 RMK A01 T02510168  RH  060%=      5-min Rain = 0
KWA1 232055Z 13010KT 25/17 A2995 RMK A01 T02500165  RH  059%=      5-min Rain = 0
KWA1 232056Z 13010KT 25/17 A2995 RMK A01 T02490166  RH  060%=      5-min Rain = 0
KWA1 232057Z 13010KT 25/17 A2994 RMK A01 T02470167  RH  061%=      5-min Rain = 0
KWA1 232058Z 11011KT 25/17 A2994 RMK A01 T02490168  RH  061%=      5-min Rain = 0
KWA1 232059Z 12009KT 25/17 A2994 RMK A01 T02500168  RH  060%=      5-min Rain = 0
KWA1 232100Z 14011KT 25/17 A2994 RMK A01 T02510168  RH  060%=      5-min Rain = 0
KWA1 232101Z 13010KT 25/17 A2994 RMK A01 T02500166  RH  059%=      5-min Rain = 0
KWA1 232102Z 14009KT 25/17 A2994 RMK A01 T02480166  RH  060%=      5-min Rain = 0
KWA1 232103Z 15010KT 25/17 A2994 RMK A01 T02480166  RH  060%=      5-min Rain = 0
KWA1 232104Z 15010KT 25/17 A2994 RMK A01 T02480168  RH  061%=      5-min Rain = 0
KWA1 232105Z 15011KT 25/17 A2994 RMK A01 T02520171  RH  061%=      5-min Rain = 0
KWA1 232106Z 15010KT 25/17 A2994 RMK A01 T02530168  RH  059%=      5-min Rain = 0
KWA1 232107Z 13010KT 25/17 A2994 RMK A01 T02520168  RH  060%=      5-min Rain = 0
KWA1 232108Z 14011KT 25/17 A2994 RMK A01 T02510167  RH  059%=      5-min Rain = 0
KWA1 232109Z 15010KT 25/17 A2994 RMK A01 T02480166  RH  060%=      5-min Rain = 0
KWA1 232110Z 14010KT 25/17 A2994 RMK A01 T02460167  RH  061%=      5-min Rain = 0
KWA1 232111Z 13008KT 25/17 A2994 RMK A01 T02460168  RH  062%=      5-min Rain = 0
KWA1 232112Z 10008KT 25/17 A2994 RMK A01 T02480167  RH  061%=      5-min Rain = 0
KWA1 232113Z 11009KT 25/17 A2994 RMK A01 T02470167  RH  061%=      5-min Rain = 0
KWA1 232114Z 13011KT 25/17 A2994 RMK A01 T02470168  RH  062%=      5-min Rain = 0
KWA1 232115Z 13009KT 25/17 A2994 RMK A01 T02470169  RH  062%=      5-min Rain = 0
KWA1 232116Z 14010KT 25/17 A2993 RMK A01 T02470169  RH  062%=      5-min Rain = 0
KWA1 232117Z 12010KT 25/17 A2993 RMK A01 T02480169  RH  061%=      5-min Rain = 0
KWA1 232118Z 12011KT 25/17 A2993 RMK A01 T02480171  RH  062%=      5-min Rain = 0
KWA1 232119Z 12009KT 25/17 A2993 RMK A01 T02470169  RH  062%=      5-min Rain = 0
KWA1 232120Z 13010KT 25/17 A2993 RMK A01 T02470169  RH  062%=      5-min Rain = 0
KWA1 232121Z 16010KT 25/17 A2993 RMK A01 T02470170  RH  062%=      5-min Rain = 0
KWA1 232122Z 15011KT 25/17 A2993 RMK A01 T02480169  RH  061%=      5-min Rain = 0
KWA1 232123Z 14013KT 25/17 A2993 RMK A01 T02490171  RH  062%=      5-min Rain = 0
KWA1 232124Z 15012KT 25/17 A2993 RMK A01 T02510171  RH  061%=      5-min Rain = 0
KWA1 232125Z 14011KT 25/17 A2993 RMK A01 T02510171  RH  061%=      5-min Rain = 0
KWA1 232126Z 15013KT 25/17 A2993 RMK A01 T02510170  RH  061%=      5-min Rain = 0
KWA1 232127Z 15011KT 25/17 A2993 RMK A01 T02500170  RH  061%=      5-min Rain = 0
KWA1 232128Z 16011KT 25/17 A2993 RMK A01 T02500170  RH  061%=      5-min Rain = 0
KWA1 232129Z 15010KT 25/17 A2993 RMK A01 T02490169  RH  061%=      5-min Rain = 0
KWA1 232130Z 14011KT 25/17 A2993 RMK A01 T02480169  RH  061%=      5-min Rain = 0
KWA1 232131Z 14012KT 25/17 A2993 RMK A01 T02470168  RH  061%=      5-min Rain = 0
KWA1 232132Z 13009KT 25/17 A2993 RMK A01 T02460168  RH  062%=      5-min Rain = 0
KWA1 232133Z 13010KT 25/17 A2993 RMK A01 T02450167  RH  062%=      5-min Rain = 0
KWA1 232134Z 13012KT 25/17 A2993 RMK A01 T02460169  RH  062%=      5-min Rain = 0
KWA1 232135Z 14011KT 25/17 A2993 RMK A01 T02460168  RH  062%=      5-min Rain = 0
KWA1 232136Z 15012KT 25/17 A2993 RMK A01 T02450169  RH  063%=      5-min Rain = 0
KWA1 232137Z 14009KT 25/17 A2993 RMK A01 T02450170  RH  063%=      5-min Rain = 0
KWA1 232138Z 13009KT 25/17 A2993 RMK A01 T02470169  RH  062%=      5-min Rain = 0
KWA1 232139Z 14011KT 25/17 A2993 RMK A01 T02460168  RH  062%=      5-min Rain = 0
KWA1 232140Z 14012KT 25/17 A2993 RMK A01 T02470170  RH  062%=      5-min Rain = 0
KWA1 232141Z 15011KT 25/17 A2993 RMK A01 T02490169  RH  061%=      5-min Rain = 0
KWA1 232142Z 15010KT 25/17 A2992 RMK A01 T02470169  RH  062%=      5-min Rain = 0
KWA1 232143Z 13010KT 25/17 A2992 RMK A01 T02460169  RH  062%=      5-min Rain = 0
KWA1 232144Z 13011KT 25/17 A2992 RMK A01 T02460169  RH  062%=      5-min Rain = 0
KWA1 232145Z 14014KT 25/17 A2992 RMK A01 T02470169  RH  062%=      5-min Rain = 0
KWA1 232146Z 15013KT 25/17 A2992 RMK A01 T02470170  RH  062%=      5-min Rain = 0
KWA1 232147Z 14011KT 25/17 A2992 RMK A01 T02480171  RH  062%=      5-min Rain = 0
KWA1 232148Z 14011KT 25/17 A2992 RMK A01 T02480171  RH  062%=      5-min Rain = 0
KWA1 232149Z 14011KT 25/17 A2992 RMK A01 T02460170  RH  063%=      5-min Rain = 0
KWA1 232150Z 14012KT 24/17 A2992 RMK A01 T02440170  RH  063%=      5-min Rain = 0
KWA1 232151Z 14012KT 24/17 A2992 RMK A01 T02430170  RH  064%=      5-min Rain = 0
KWA1 232152Z 15011KT 24/17 A2992 RMK A01 T02440170  RH  063%=      5-min Rain = 0
KWA1 232153Z 16012KT 25/17 A2992 RMK A01 T02450170  RH  063%=      5-min Rain = 0
KWA1 232154Z 16014KT 25/17 A2992 RMK A01 T02450171  RH  063%=      5-min Rain = 0
KWA1 232155Z 16013KT 25/17 A2992 RMK A01 T02460171  RH  063%=      5-min Rain = 0
KWA1 232156Z 15015KT 25/17 A2992 RMK A01 T02460170  RH  063%=      5-min Rain = 0
KWA1 232157Z 14012KT 24/17 A2992 RMK A01 T02430170  RH  064%=      5-min Rain = 0
KWA1 232158Z 14013KT 24/17 A2992 RMK A01 T02420171  RH  064%=      5-min Rain = 0
KWA1 232159Z 14012KT 24/17 A2992 RMK A01 T02420171  RH  064%=      5-min Rain = 0
KWA1 232200Z 13013KT 24/17 A2992 RMK A01 T02410170  RH  065%=      5-min Rain = 0
KWA1 232201Z 13013KT 24/17 A2992 RMK A01 T02390170  RH  065%=      5-min Rain = 0
KWA1 232202Z 14013KT 24/17 A2992 RMK A01 T02390170  RH  065%=      5-min Rain = 0
KWA1 232203Z 15011KT 24/17 A2992 RMK A01 T02390171  RH  066%=      5-min Rain = 0
KWA1 232204Z 16011KT 24/17 A2992 RMK A01 T02400171  RH  065%=      5-min Rain = 0
KWA1 232205Z 16013KT 24/17 A2992 RMK A01 T02410171  RH  065%=      5-min Rain = 0
KWA1 232206Z 15012KT 24/17 A2992 RMK A01 T02410171  RH  065%=      5-min Rain = 0
KWA1 232207Z 14013KT 24/17 A2992 RMK A01 T02420172  RH  065%=      5-min Rain = 0
KWA1 232208Z 15014KT 24/17 A2992 RMK A01 T02420172  RH  065%=      5-min Rain = 0
KWA1 232209Z 15013KT 24/17 A2992 RMK A01 T02420173  RH  065%=      5-min Rain = 0
KWA1 232210Z 15013KT 24/17 A2992 RMK A01 T02440173  RH  065%=      5-min Rain = 0
KWA1 232211Z 14014KT 25/17 A2992 RMK A01 T02450173  RH  064%=      5-min Rain = 0
KWA1 232212Z 15015KT 25/17 A2992 RMK A01 T02450172  RH  064%=      5-min Rain = 0
KWA1 232213Z 14014KT 25/17 A2992 RMK A01 T02470171  RH  063%=      5-min Rain = 0
KWA1 232214Z 14012KT 25/17 A2992 RMK A01 T02460170  RH  063%=      5-min Rain = 0
KWA1 232215Z 14011KT 25/17 A2992 RMK A01 T02450170  RH  063%=      5-min Rain = 0
KWA1 232216Z 14013KT 25/17 A2992 RMK A01 T02450173  RH  064%=      5-min Rain = 0
KWA1 232217Z 15014KT 25/17 A2992 RMK A01 T02470172  RH  063%=      5-min Rain = 0
KWA1 232218Z 16016KT 25/17 A2992 RMK A01 T02480173  RH  063%=      5-min Rain = 0
KWA1 232219Z 14015KT 25/17 A2992 RMK A01 T02500173  RH  062%=      5-min Rain = 0
KWA1 232220Z 15014KT 25/17 A2991 RMK A01 T02490171  RH  062%=      5-min Rain = 0
KWA1 232221Z 15016KT 25/17 A2991 RMK A01 T02470171  RH  063%=      5-min Rain = 0
KWA1 232222Z 15015KT 25/17 A2991 RMK A01 T02460171  RH  063%=      5-min Rain = 0
KWA1 232223Z 15016KT 25/17 A2992 RMK A01 T02450171  RH  063%=      5-min Rain = 0
KWA1 232224Z 17015KT 25/17 A2991 RMK A01 T02450172  RH  064%=      5-min Rain = 0
KWA1 232225Z 16016KT 25/17 A2991 RMK A01 T02450172  RH  064%=      5-min Rain = 0
KWA1 232226Z 15017KT 25/17 A2992 RMK A01 T02450174  RH  064%=      5-min Rain = 0
KWA1 232227Z 15013KT 25/18 A2992 RMK A01 T02450175  RH  065%=      5-min Rain = 0
KWA1 232228Z 15014KT 25/18 A2992 RMK A01 T02460175  RH  065%=      5-min Rain = 0
KWA1 232229Z 15015KT 25/17 A2991 RMK A01 T02460174  RH  064%=      5-min Rain = 0
KWA1 232230Z 14015KT 24/17 A2992 RMK A01 T02440173  RH  064%=      5-min Rain = 0
KWA1 232231Z 14017KT 24/17 A2992 RMK A01 T02410172  RH  065%=      5-min Rain = 0
KWA1 232232Z 15013KT 24/17 A2991 RMK A01 T02400173  RH  066%=      5-min Rain = 0
KWA1 232233Z 16012KT 24/17 A2991 RMK A01 T02410174  RH  066%=      5-min Rain = 0
KWA1 232234Z 15015KT 24/17 A2991 RMK A01 T02430174  RH  066%=      5-min Rain = 0
KWA1 232235Z 14015KT 24/17 A2991 RMK A01 T02430174  RH  065%=      5-min Rain = 0
KWA1 232236Z 15016KT 24/17 A2991 RMK A01 T02420172  RH  065%=      5-min Rain = 0
KWA1 232237Z 15013KT 24/17 A2991 RMK A01 T02400173  RH  066%=      5-min Rain = 0
KWA1 232238Z 15012KT 24/17 A2991 RMK A01 T02400173  RH  066%=      5-min Rain = 0
KWA1 232239Z 14014KT 24/17 A2991 RMK A01 T02400173  RH  066%=      5-min Rain = 0
KWA1 232240Z 14016KT 24/17 A2991 RMK A01 T02400173  RH  066%=      5-min Rain = 0
KWA1 232241Z 15015KT 24/17 A2991 RMK A01 T02400173  RH  066%=      5-min Rain = 0
KWA1 232242Z 15014KT 24/17 A2991 RMK A01 T02400172  RH  066%=      5-min Rain = 0
KWA1 232243Z 14014KT 24/17 A2991 RMK A01 T02390172  RH  066%=      5-min Rain = 0
KWA1 232244Z 15015KT 24/17 A2991 RMK A01 T02390171  RH  066%=      5-min Rain = 0
KWA1 232245Z 17014KT 24/17 A2991 RMK A01 T02400172  RH  066%=      5-min Rain = 0
KWA1 232246Z 15014KT 24/17 A2991 RMK A01 T02420173  RH  065%=      5-min Rain = 0
KWA1 232247Z 15013KT 24/17 A2991 RMK A01 T02430173  RH  065%=      5-min Rain = 0
KWA1 232248Z 16012KT 24/18 A2991 RMK A01 T02440175  RH  065%=      5-min Rain = 0
KWA1 232249Z 17014KT 25/17 A2991 RMK A01 T02460174  RH  064%=      5-min Rain = 0
KWA1 232250Z 17015KT 25/17 A2991 RMK A01 T02460173  RH  064%=      5-min Rain = 0
KWA1 232251Z 17014KT 24/17 A2991 RMK A01 T02420172  RH  065%=      5-min Rain = 0
KWA1 232252Z 17013KT 24/17 A2991 RMK A01 T02390171  RH  066%=      5-min Rain = 0
KWA1 232253Z 17013KT 24/17 A2991 RMK A01 T02390172  RH  066%=      5-min Rain = 0
KWA1 232254Z 15014KT 24/17 A2991 RMK A01 T02390173  RH  066%=      5-min Rain = 0
KWA1 232255Z 15018KT 24/17 A2991 RMK A01 T02390172  RH  066%=      5-min Rain = 0
KWA1 232256Z 14017KT 24/17 A2991 RMK A01 T02380171  RH  066%=      5-min Rain = 0
KWA1 232257Z 15016KT 24/17 A2991 RMK A01 T02360171  RH  067%=      5-min Rain = 0
KWA1 232258Z 15014KT 24/17 A2991 RMK A01 T02360172  RH  067%=      5-min Rain = 0
KWA1 232259Z 14015KT 24/17 A299 RMK A01 T02360171  RH  067%=      5-min Rain = 0
KWA1 232300Z 14012KT 24/17 A2991 RMK A01 T02350171  RH  068%=      5-min Rain = 0
KWA1 232301Z 14010KT 23/17 A2991 RMK A01 T02340172  RH  068%=      5-min Rain = 0
KWA1 232302Z 16014KT 24/17 A2991 RMK A01 T02350172  RH  068%=      5-min Rain = 0
KWA1 232303Z 16015KT 24/17 A299 RMK A01 T02370172  RH  067%=      5-min Rain = 0
KWA1 232304Z 17014KT 24/17 A299 RMK A01 T02360171  RH  067%=      5-min Rain = 0
KWA1 232305Z 16016KT 24/17 A299 RMK A01 T02370172  RH  067%=      5-min Rain = 0
KWA1 232306Z 16013KT 24/17 A299 RMK A01 T02360172  RH  067%=      5-min Rain = 0
KWA1 232307Z 17014KT 24/17 A299 RMK A01 T02360171  RH  067%=      5-min Rain = 0
KWA1 232308Z 16012KT 24/17 A2991 RMK A01 T02350171  RH  067%=      5-min Rain = 0
KWA1 232309Z 15011KT 23/17 A2991 RMK A01 T02340171  RH  068%=      5-min Rain = 0
KWA1 232310Z 14013KT 23/17 A2991 RMK A01 T02330172  RH  068%=      5-min Rain = 0
KWA1 232311Z 15012KT 23/17 A2991 RMK A01 T02330172  RH  068%=      5-min Rain = 0
KWA1 232312Z 15011KT 23/17 A2991 RMK A01 T02330172  RH  069%=      5-min Rain = 0
KWA1 232313Z 15012KT 23/17 A2991 RMK A01 T02340172  RH  068%=      5-min Rain = 0
KWA1 232314Z 15014KT 24/17 A2991 RMK A01 T02360173  RH  068%=      5-min Rain = 0
KWA1 232315Z 16014KT 24/17 A2991 RMK A01 T02370172  RH  067%=      5-min Rain = 0
KWA1 232316Z 16013G19KT 24/17 A2991 RMK A01 T02370171  RH  067%=      5-min Rain = 0
KWA1 232317Z 15011KT 24/17 A2991 RMK A01 T02360172  RH  067%=      5-min Rain = 0
KWA1 232318Z 16014KT 24/17 A299 RMK A01 T02360171  RH  067%=      5-min Rain = 0
KWA1 232319Z 16012KT 24/17 A299 RMK A01 T02350170  RH  067%=      5-min Rain = 0
KWA1 232320Z 16011KT 23/17 A299 RMK A01 T02340170  RH  067%=      5-min Rain = 0
KWA1 232321Z 16012KT 23/17 A299 RMK A01 T02340171  RH  068%=      5-min Rain = 0
KWA1 232322Z 16012KT 23/17 A299 RMK A01 T02340171  RH  067%=      5-min Rain = 0
KWA1 232323Z 15013KT 23/17 A299 RMK A01 T02340171  RH  067%=      5-min Rain = 0
KWA1 232324Z 15013KT 24/17 A299 RMK A01 T02350171  RH  067%=      5-min Rain = 0
KWA1 232325Z 14014KT 23/17 A299 RMK A01 T02340171  RH  068%=      5-min Rain = 0
KWA1 232326Z 14012KT 23/17 A299 RMK A01 T02330171  RH  068%=      5-min Rain = 0
KWA1 232327Z 14014KT 23/17 A299 RMK A01 T02320172  RH  069%=      5-min Rain = 0
KWA1 232328Z 15014KT 23/17 A299 RMK A01 T02320171  RH  069%=      5-min Rain = 0
KWA1 232329Z 15014KT 23/17 A299 RMK A01 T02320172  RH  069%=      5-min Rain = 0
KWA1 232330Z 16012KT 23/17 A299 RMK A01 T02330172  RH  069%=      5-min Rain = 0
KWA1 232331Z 16014KT 24/17 A299 RMK A01 T02350173  RH  068%=      5-min Rain = 0
KWA1 232332Z 15014KT 23/17 A299 RMK A01 T02340172  RH  068%=      5-min Rain = 0
KWA1 232333Z 14013KT 23/17 A299 RMK A01 T02330172  RH  068%=      5-min Rain = 0
KWA1 232334Z 15012KT 23/17 A299 RMK A01 T02310171  RH  069%=      5-min Rain = 0
KWA1 232335Z 16011KT 23/17 A299 RMK A01 T02300172  RH  070%=      5-min Rain = 0
KWA1 232336Z 16010KT 23/17 A299 RMK A01 T02300172  RH  070%=      5-min Rain = 0
KWA1 232337Z 16012KT 23/17 A299 RMK A01 T02300172  RH  070%=      5-min Rain = 0
KWA1 232338Z 16014KT 23/17 A299 RMK A01 T02320172  RH  069%=      5-min Rain = 0
KWA1 232339Z 17013KT 23/17 A299 RMK A01 T02310172  RH  069%=      5-min Rain = 0
KWA1 232340Z 16013KT 23/17 A299 RMK A01 T02310173  RH  070%=      5-min Rain = 0
KWA1 232341Z 17013KT 23/17 A299 RMK A01 T02320172  RH  069%=      5-min Rain = 0
KWA1 232342Z 16011KT 23/17 A299 RMK A01 T02310171  RH  069%=      5-min Rain = 0
KWA1 232343Z 15012KT 23/17 A299 RMK A01 T02300171  RH  070%=      5-min Rain = 0
KWA1 232344Z 14012KT 23/17 A299 RMK A01 T02300171  RH  069%=      5-min Rain = 0
KWA1 232345Z 16012KT 23/17 A299 RMK A01 T02310171  RH  069%=      5-min Rain = 0
KWA1 232346Z 17011KT 23/17 A299 RMK A01 T02310171  RH  069%=      5-min Rain = 0
KWA1 232347Z 16011KT 23/17 A299 RMK A01 T02320172  RH  069%=      5-min Rain = 0
KWA1 232348Z 17011KT 23/17 A299 RMK A01 T02320172  RH  069%=      5-min Rain = 0
KWA1 232349Z 18012KT 23/17 A299 RMK A01 T02320172  RH  069%=      5-min Rain = 0
KWA1 232350Z 18012KT 23/17 A299 RMK A01 T02320172  RH  069%=      5-min Rain = 0
KWA1 232351Z 17012KT 23/17 A299 RMK A01 T02310172  RH  069%=      5-min Rain = 0
KWA1 232352Z 17013KT 23/17 A299 RMK A01 T02310172  RH  069%=      5-min Rain = 0
KWA1 232353Z 18013KT 23/17 A299 RMK A01 T02300172  RH  070%=      5-min Rain = 0
KWA1 232354Z 16013KT 23/17 A299 RMK A01 T02290171  RH  070%=      5-min Rain = 0
KWA1 232355Z 16012KT 23/17 A299 RMK A01 T02290171  RH  070%=      5-min Rain = 0
KWA1 232356Z 17013KT 23/17 A2989 RMK A01 T02300171  RH  070%=      5-min Rain = 0
KWA1 232357Z 16011KT 23/17 A2989 RMK A01 T02300171  RH  069%=      5-min Rain = 0
KWA1 232358Z 16010KT 23/17 A2989 RMK A01 T02290171  RH  070%=      5-min Rain = 0
KWA1 232359Z 16011KT 23/17 A2989 RMK A01 T02290171  RH  070%=      5-min Rain = 0
KWA1 240000Z 16011KT 23/17 A299 RMK A01 T02290171  RH  070%=      5-min Rain = 0
KWA1 240001Z 16012KT 23/17 A299 RMK A01 T02300171  RH  069%=      5-min Rain = 0
KWA1 240002Z 17012KT 23/17 A299 RMK A01 T02300171  RH  069%=      5-min Rain = 0
KWA1 240003Z 18012KT 23/17 A299 RMK A01 T02300171  RH  069%=      5-min Rain = 0
KWA1 240004Z 17010KT 23/17 A299 RMK A01 T02300171  RH  069%=      5-min Rain = 0
KWA1 240005Z 18011KT 23/17 A299 RMK A01 T02300171  RH  069%=      5-min Rain = 0
KWA1 240006Z 18012KT 23/17 A299 RMK A01 T02300170  RH  069%=      5-min Rain = 0
KWA1 240007Z 18012KT 23/17 A299 RMK A01 T02300171  RH  069%=      5-min Rain = 0
KWA1 240008Z 17012KT 23/17 A299 RMK A01 T02290171  RH  070%=      5-min Rain = 0
KWA1 240009Z 17012KT 23/17 A299 RMK A01 T02290171  RH  070%=      5-min Rain = 0
KWA1 240010Z 17012KT 23/17 A299 RMK A01 T02290170  RH  070%=      5-min Rain = 0
KWA1 240011Z 17010KT 23/17 A299 RMK A01 T02290170  RH  069%=      5-min Rain = 0
KWA1 240012Z 18011KT 23/17 A299 RMK A01 T02300170  RH  069%=      5-min Rain = 0
KWA1 240013Z 19013KT 23/17 A299 RMK A01 T02300170  RH  069%=      5-min Rain = 0
KWA1 240014Z 18013KT 23/17 A299 RMK A01 T02300170  RH  069%=      5-min Rain = 0
KWA1 240015Z 18014KT 23/17 A299 RMK A01 T02300169  RH  069%=      5-min Rain = 0
KWA1 240016Z 18014KT 23/17 A299 RMK A01 T02300170  RH  069%=      5-min Rain = 0
KWA1 240017Z 18015KT 23/17 A299 RMK A01 T02300170  RH  069%=      5-min Rain = 0
KWA1 240018Z 17015KT 23/17 A2991 RMK A01 T02290170  RH  069%=      5-min Rain = 0
KWA1 240019Z 18013KT 23/17 A2991 RMK A01 T02290170  RH  069%=      5-min Rain = 0
KWA1 240020Z 17011KT 23/17 A2991 RMK A01 T02290170  RH  069%=      5-min Rain = 0
KWA1 240021Z 18012KT 23/17 A2991 RMK A01 T02300170  RH  069%=      5-min Rain = 0
KWA1 240022Z 17014KT 23/17 A2991 RMK A01 T02300170  RH  069%=      5-min Rain = 0
KWA1 240023Z 16013KT 23/17 A2991 RMK A01 T02290170  RH  070%=      5-min Rain = 0
KWA1 240024Z 17013KT 23/17 A2991 RMK A01 T02290171  RH  070%=      5-min Rain = 0
KWA1 240025Z 17011KT 23/17 A2991 RMK A01 T02280171  RH  070%=      5-min Rain = 0
KWA1 240026Z 17012KT 23/17 A2991 RMK A01 T02280171  RH  070%=      5-min Rain = 0
KWA1 240027Z 17013KT 23/17 A2991 RMK A01 T02280171  RH  070%=      5-min Rain = 0
KWA1 240028Z 17012KT 23/17 A2991 RMK A01 T02280171  RH  070%=      5-min Rain = 0
KWA1 240029Z 18011KT 23/17 A2991 RMK A01 T02270171  RH  070%=      5-min Rain = 0
KWA1 240030Z 18010KT 23/17 A2991 RMK A01 T02270171  RH  070%=      5-min Rain = 0
KWA1 240031Z 17011KT 23/17 A2991 RMK A01 T02270171  RH  070%=      5-min Rain = 0
KWA1 240032Z 18009KT 23/17 A2991 RMK A01 T02270171  RH  071%=      5-min Rain = 0
KWA1 240033Z 18009KT 23/17 A2991 RMK A01 T02270171  RH  071%=      5-min Rain = 0
KWA1 240034Z 18011KT 23/17 A2991 RMK A01 T02270171  RH  071%=      5-min Rain = 0
KWA1 240035Z 18010KT 23/17 A2991 RMK A01 T02270171  RH  071%=      5-min Rain = 0
KWA1 240036Z 18008KT 23/17 A2991 RMK A01 T02260171  RH  071%=      5-min Rain = 0
KWA1 240037Z 18009KT 23/17 A2991 RMK A01 T02260171  RH  071%=      5-min Rain = 0
KWA1 240038Z 18010KT 23/17 A2991 RMK A01 T02250171  RH  071%=      5-min Rain = 0
KWA1 240039Z 18010KT 23/17 A2991 RMK A01 T02250172  RH  072%=      5-min Rain = 0
KWA1 240040Z 18008KT 23/17 A2991 RMK A01 T02260172  RH  072%=      5-min Rain = 0
KWA1 240041Z 18009KT 23/17 A2991 RMK A01 T02260171  RH  071%=      5-min Rain = 0
KWA1 240042Z 18010KT 23/17 A2991 RMK A01 T02260172  RH  072%=      5-min Rain = 0
KWA1 240043Z 17009KT 23/17 A2991 RMK A01 T02250172  RH  072%=      5-min Rain = 0
KWA1 240044Z 17007KT 23/17 A2991 RMK A01 T02250172  RH  072%=      5-min Rain = 0
KWA1 240045Z 17008KT 23/17 A2991 RMK A01 T02250172  RH  072%=      5-min Rain = 0
KWA1 240046Z 17009KT 23/17 A2991 RMK A01 T02250171  RH  072%=      5-min Rain = 0
KWA1 240047Z 17007KT 23/17 A299 RMK A01 T02250171  RH  072%=      5-min Rain = 0
KWA1 240048Z 17007KT 23/17 A299 RMK A01 T02250172  RH  072%=      5-min Rain = 0
KWA1 240049Z 16006KT 23/17 A299 RMK A01 T02250172  RH  072%=      5-min Rain = 0
KWA1 240050Z 16007KT 23/17 A299 RMK A01 T02250171  RH  072%=      5-min Rain = 0
KWA1 240051Z 16008KT 23/17 A299 RMK A01 T02250172  RH  072%=      5-min Rain = 0
KWA1 240052Z 16007KT 22/17 A299 RMK A01 T02240171  RH  072%=      5-min Rain = 0
KWA1 240053Z 16007KT 22/17 A299 RMK A01 T02240172  RH  072%=      5-min Rain = 0
KWA1 240054Z 17008KT 22/17 A299 RMK A01 T02230172  RH  072%=      5-min Rain = 0
KWA1 240055Z 17008KT 22/17 A299 RMK A01 T02230171  RH  072%=      5-min Rain = 0
KWA1 240056Z 16006KT 22/17 A299 RMK A01 T02230171  RH  072%=      5-min Rain = 0
KWA1 240057Z 16007KT 22/17 A299 RMK A01 T02230171  RH  072%=      5-min Rain = 0
KWA1 240058Z 15006KT 22/17 A299 RMK A01 T02230171  RH  073%=      5-min Rain = 0
KWA1 240059Z 16007KT 22/17 A299 RMK A01 T02230172  RH  073%=      5-min Rain = 0
KWA1 240100Z 17007KT 22/17 A299 RMK A01 T02230172  RH  073%=      5-min Rain = 0
KWA1 240101Z 17006KT 22/17 A299 RMK A01 T02230172  RH  073%=      5-min Rain = 0
KWA1 240102Z 19007KT 22/17 A299 RMK A01 T02230171  RH  073%=      5-min Rain = 0
KWA1 240103Z 19006KT 22/17 A299 RMK A01 T02220172  RH  073%=      5-min Rain = 0
KWA1 240104Z 18006KT 22/17 A299 RMK A01 T02220171  RH  073%=      5-min Rain = 0
KWA1 240105Z 18007KT 22/17 A299 RMK A01 T02230171  RH  073%=      5-min Rain = 0
KWA1 240106Z 18007KT 22/17 A299 RMK A01 T02230171  RH  073%=      5-min Rain = 0
KWA1 240107Z 17007KT 22/17 A299 RMK A01 T02220171  RH  073%=      5-min Rain = 0
KWA1 240108Z 17007KT 22/17 A299 RMK A01 T02220171  RH  073%=      5-min Rain = 0
KWA1 240109Z 16006KT 22/17 A299 RMK A01 T02220171  RH  073%=      5-min Rain = 0
KWA1 240110Z 16007KT 22/17 A299 RMK A01 T02220171  RH  073%=      5-min Rain = 0
KWA1 240111Z 17007KT 22/17 A299 RMK A01 T02220171  RH  073%=      5-min Rain = 0
KWA1 240112Z 16006KT 22/17 A299 RMK A01 T02220171  RH  073%=      5-min Rain = 0
KWA1 240113Z 17005KT 22/17 A299 RMK A01 T02220171  RH  073%=      5-min Rain = 0
KWA1 240114Z 16004KT 22/17 A299 RMK A01 T02210171  RH  073%=      5-min Rain = 0
KWA1 240115Z 16005KT 22/17 A299 RMK A01 T02210172  RH  073%=      5-min Rain = 0
KWA1 240116Z 16006KT 22/17 A299 RMK A01 T02210171  RH  073%=      5-min Rain = 0
KWA1 240117Z 14005KT 22/17 A299 RMK A01 T02210171  RH  073%=      5-min Rain = 0
KWA1 240118Z 14004KT 22/17 A299 RMK A01 T02210171  RH  074%=      5-min Rain = 0
KWA1 240119Z 13005KT 22/17 A299 RMK A01 T02210171  RH  074%=      5-min Rain = 0
KWA1 240120Z 14005KT 22/17 A2991 RMK A01 T02210172  RH  074%=      5-min Rain = 0
KWA1 240121Z 14004KT 22/17 A2991 RMK A01 T02200172  RH  074%=      5-min Rain = 0
KWA1 240122Z 14004KT 22/17 A2991 RMK A01 T02200172  RH  074%=      5-min Rain = 0
KWA1 240123Z 14005KT 22/17 A2991 RMK A01 T02200172  RH  074%=      5-min Rain = 0
KWA1 240124Z 14004KT 22/17 A2991 RMK A01 T02200172  RH  074%=      5-min Rain = 0
KWA1 240125Z 13004KT 22/17 A2991 RMK A01 T02190172  RH  074%=      5-min Rain = 0
KWA1 240126Z 14004KT 22/17 A2991 RMK A01 T02190171  RH  074%=      5-min Rain = 0
KWA1 240127Z 15005KT 22/17 A2991 RMK A01 T02190172  RH  074%=      5-min Rain = 0
KWA1 240128Z 15005KT 22/17 A2991 RMK A01 T02190171  RH  074%=      5-min Rain = 0
KWA1 240129Z 15005KT 22/17 A2991 RMK A01 T02190171  RH  074%=      5-min Rain = 0
KWA1 240130Z 15005KT 22/17 A2991 RMK A01 T02190172  RH  074%=      5-min Rain = 0
KWA1 240131Z 15004KT 22/17 A2991 RMK A01 T02190171  RH  074%=      5-min Rain = 0
KWA1 240132Z 16005KT 22/17 A2991 RMK A01 T02190171  RH  074%=      5-min Rain = 0
KWA1 240133Z 15006KT 22/17 A2991 RMK A01 T02190171  RH  074%=      5-min Rain = 0
KWA1 240134Z 15006KT 22/17 A2991 RMK A01 T02180172  RH  075%=      5-min Rain = 0
KWA1 240135Z 16005KT 22/17 A2991 RMK A01 T02180171  RH  075%=      5-min Rain = 0
KWA1 240136Z 16006KT 22/17 A2991 RMK A01 T02180171  RH  075%=      5-min Rain = 0
KWA1 240137Z 16006KT 22/17 A2991 RMK A01 T02180172  RH  075%=      5-min Rain = 0
KWA1 240138Z 16005KT 22/17 A2992 RMK A01 T02180172  RH  075%=      5-min Rain = 0
KWA1 240139Z 16004KT 22/17 A2992 RMK A01 T02180171  RH  075%=      5-min Rain = 0
KWA1 240140Z 16005KT 22/17 A2992 RMK A01 T02180171  RH  075%=      5-min Rain = 0
KWA1 240141Z 16005KT 22/17 A2992 RMK A01 T02180172  RH  075%=      5-min Rain = 0
KWA1 240142Z 16005KT 22/17 A2992 RMK A01 T02170171  RH  075%=      5-min Rain = 0
KWA1 240143Z 16005KT 22/17 A2992 RMK A01 T02170172  RH  075%=      5-min Rain = 0
KWA1 240144Z 15005KT 22/17 A2992 RMK A01 T02170172  RH  075%=      5-min Rain = 0
KWA1 240145Z 16005KT 22/17 A2992 RMK A01 T02170171  RH  075%=      5-min Rain = 0
KWA1 240146Z 16004KT 22/17 A2992 RMK A01 T02170171  RH  075%=      5-min Rain = 0
KWA1 240147Z 16005KT 22/17 A2991 RMK A01 T02170172  RH  076%=      5-min Rain = 0
KWA1 240148Z 16004KT 22/17 A2991 RMK A01 T02170172  RH  076%=      5-min Rain = 0
KWA1 240149Z 17004KT 22/17 A2992 RMK A01 T02170172  RH  076%=      5-min Rain = 0
KWA1 240150Z 17004KT 22/17 A2991 RMK A01 T02170172  RH  075%=      5-min Rain = 0
KWA1 240151Z 16004KT 22/17 A2991 RMK A01 T02170172  RH  076%=      5-min Rain = 0
KWA1 240152Z 16003KT 22/17 A2991 RMK A01 T02170171  RH  075%=      5-min Rain = 0
KWA1 240153Z 16003KT 22/17 A2991 RMK A01 T02170171  RH  075%=      5-min Rain = 0
KWA1 240154Z 16004KT 22/17 A2991 RMK A01 T02170171  RH  075%=      5-min Rain = 0
KWA1 240155Z 16004KT 22/17 A2991 RMK A01 T02170173  RH  076%=      5-min Rain = 0
KWA1 240156Z 15004KT 22/17 A2991 RMK A01 T02160172  RH  076%=      5-min Rain = 0
KWA1 240157Z 15004KT 22/17 A2991 RMK A01 T02170171  RH  075%=      5-min Rain = 0
KWA1 240158Z 15004KT 22/17 A2991 RMK A01 T02170171  RH  075%=      5-min Rain = 0
KWA1 240159Z 15004KT 22/17 A2991 RMK A01 T02170171  RH  075%=      5-min Rain = 0
KWA1 240200Z 15004KT 22/17 A2992 RMK A01 T02170172  RH  075%=      5-min Rain = 0
KWA1 240201Z 15004KT 22/17 A2992 RMK A01 T02170171  RH  075%=      5-min Rain = 0
KWA1 240202Z 15004KT 22/17 A2992 RMK A01 T02170172  RH  075%=      5-min Rain = 0
KWA1 240203Z 16004KT 22/17 A2992 RMK A01 T02170172  RH  076%=      5-min Rain = 0
KWA1 240204Z 15004KT 22/17 A2992 RMK A01 T02170172  RH  076%=      5-min Rain = 0
KWA1 240205Z 16004KT 22/17 A2992 RMK A01 T02170172  RH  076%=      5-min Rain = 0
KWA1 240206Z 15003KT 22/17 A2992 RMK A01 T02170172  RH  076%=      5-min Rain = 0
KWA1 240207Z 14003KT 22/17 A2992 RMK A01 T02170172  RH  076%=      5-min Rain = 0
KWA1 240208Z 13004KT 22/17 A2992 RMK A01 T02170173  RH  076%=      5-min Rain = 0
KWA1 240209Z 14004KT 22/17 A2992 RMK A01 T02170173  RH  076%=      5-min Rain = 0
KWA1 240210Z 14004KT 22/17 A2992 RMK A01 T02170173  RH  076%=      5-min Rain = 0
KWA1 240211Z 14004KT 22/17 A2992 RMK A01 T02170173  RH  076%=      5-min Rain = 0
KWA1 240212Z 14004KT 22/17 A2992 RMK A01 T02170173  RH  076%=      5-min Rain = 0
KWA1 240213Z 13005KT 22/17 A2992 RMK A01 T02170173  RH  076%=      5-min Rain = 0
KWA1 240214Z 13005KT 22/17 A2992 RMK A01 T02170173  RH  076%=      5-min Rain = 0
KWA1 240215Z 12005KT 22/17 A2992 RMK A01 T02170174  RH  076%=      5-min Rain = 0
KWA1 240216Z 15006KT 22/17 A2992 RMK A01 T02170173  RH  076%=      5-min Rain = 0
KWA1 240217Z 14006KT 22/17 A2992 RMK A01 T02170174  RH  076%=      5-min Rain = 0
KWA1 240218Z 14006KT 22/17 A2992 RMK A01 T02170174  RH  077%=      5-min Rain = 0
KWA1 240219Z 13005KT 22/17 A2992 RMK A01 T02170174  RH  076%=      5-min Rain = 0
KWA1 240220Z 13006KT 22/17 A2992 RMK A01 T02170173  RH  076%=      5-min Rain = 0
KWA1 240221Z 13005KT 22/17 A2992 RMK A01 T02170173  RH  076%=      5-min Rain = 0
KWA1 240222Z 14005KT 22/17 A2992 RMK A01 T02170174  RH  076%=      5-min Rain = 0
KWA1 240223Z 13006KT 22/17 A2992 RMK A01 T02170173  RH  076%=      5-min Rain = 0
KWA1 240224Z 12006KT 22/17 A2992 RMK A01 T02170173  RH  076%=      5-min Rain = 0
KWA1 240225Z 12006KT 22/17 A2992 RMK A01 T02170174  RH  076%=      5-min Rain = 0
KWA1 240226Z 12006KT 22/17 A2992 RMK A01 T02180174  RH  076%=      5-min Rain = 0
KWA1 240227Z 12008KT 22/17 A2992 RMK A01 T02180174  RH  076%=      5-min Rain = 0
KWA1 240228Z 12007KT 22/17 A2992 RMK A01 T02170174  RH  076%=      5-min Rain = 0
KWA1 240229Z 12007KT 22/17 A2992 RMK A01 T02170174  RH  076%=      5-min Rain = 0
KWA1 240230Z 11005KT 22/18 A2992 RMK A01 T02180175  RH  077%=      5-min Rain = 0
KWA1 240231Z 12007KT 22/17 A2992 RMK A01 T02170174  RH  077%=      5-min Rain = 0
KWA1 240232Z 12006KT 22/17 A2992 RMK A01 T02170174  RH  077%=      5-min Rain = 0
KWA1 240233Z 12007KT 22/17 A2992 RMK A01 T02170174  RH  077%=      5-min Rain = 0
KWA1 240234Z 11006KT 22/18 A2992 RMK A01 T02170175  RH  077%=      5-min Rain = 0
KWA1 240235Z 11006KT 22/18 A2991 RMK A01 T02170175  RH  077%=      5-min Rain = 0
KWA1 240236Z 10006KT 22/18 A2992 RMK A01 T02170175  RH  077%=      5-min Rain = 0
KWA1 240237Z 10006KT 22/17 A2992 RMK A01 T02170174  RH  077%=      5-min Rain = 0
KWA1 240238Z 10005KT 22/17 A2992 RMK A01 T02160174  RH  077%=      5-min Rain = 0
KWA1 240239Z 09005KT 22/17 A2992 RMK A01 T02170173  RH  076%=      5-min Rain = 0
KWA1 240240Z 09005KT 22/17 A2992 RMK A01 T02170174  RH  077%=      5-min Rain = 0
KWA1 240241Z 08005KT 22/17 A2992 RMK A01 T02170173  RH  076%=      5-min Rain = 0
KWA1 240242Z 08005KT 22/17 A2992 RMK A01 T02170173  RH  076%=      5-min Rain = 0
KWA1 240243Z 07005KT 22/17 A2992 RMK A01 T02170174  RH  076%=      5-min Rain = 0
KWA1 240244Z 07005KT 22/17 A2992 RMK A01 T02170174  RH  076%=      5-min Rain = 0
KWA1 240245Z 07005KT 22/17 A2992 RMK A01 T02170174  RH  077%=      5-min Rain = 0
KWA1 240246Z 07005KT 22/17 A2992 RMK A01 T02160173  RH  076%=      5-min Rain = 0
KWA1 240247Z 06005KT 22/17 A2992 RMK A01 T02160173  RH  076%=      5-min Rain = 0
KWA1 240248Z 06005KT 22/17 A2992 RMK A01 T02170174  RH  076%=      5-min Rain = 0
KWA1 240249Z 06006KT 22/17 A2992 RMK A01 T02170173  RH  076%=      5-min Rain = 0
KWA1 240250Z 06006KT 22/17 A2992 RMK A01 T02160172  RH  076%=      5-min Rain = 0
KWA1 240251Z 05008KT 22/17 A2992 RMK A01 T02170173  RH  076%=      5-min Rain = 0
KWA1 240252Z 04010KT 22/17 A2992 RMK A01 T02170167  RH  073%=      5-min Rain = 0
KWA1 240253Z 05013KT 21/15 A2992 RMK A01 T02100152  RH  069%=      5-min Rain = 0
KWA1 240254Z 05012KT 20/15 A2992 RMK A01 T02030148  RH  071%=      5-min Rain = 0
KWA1 240255Z 04013KT 20/15 A2993 RMK A01 T01980146  RH  072%=      5-min Rain = 0
KWA1 240256Z 04015KT 20/15 A2993 RMK A01 T01950146  RH  073%=      5-min Rain = 0
KWA1 240257Z 04013KT 19/15 A2993 RMK A01 T01930146  RH  074%=      5-min Rain = 0
KWA1 240258Z 05014KT 19/15 A2993 RMK A01 T01920146  RH  075%=      5-min Rain = 0
KWA1 240259Z 04013KT 19/15 A2993 RMK A01 T01910146  RH  075%=      5-min Rain = 0
KWA1 240300Z 04012KT 19/15 A2993 RMK A01 T01900146  RH  076%=      5-min Rain = 0
KWA1 240301Z 05013KT 19/15 A2993 RMK A01 T01890146  RH  076%=      5-min Rain = 0
KWA1 240302Z 05012KT 19/15 A2993 RMK A01 T01890147  RH  076%=      5-min Rain = 0
KWA1 240303Z 05011KT 19/15 A2993 RMK A01 T01880147  RH  077%=      5-min Rain = 0
KWA1 240304Z 05011KT 19/15 A2993 RMK A01 T01880147  RH  077%=      5-min Rain = 0
KWA1 240305Z 05011KT 19/15 A2993 RMK A01 T01880147  RH  077%=      5-min Rain = 0
KWA1 240306Z 05010KT 19/15 A2993 RMK A01 T01880147  RH  077%=      5-min Rain = 0
KWA1 240307Z 04012KT 19/15 A2994 RMK A01 T01880146  RH  077%=      5-min Rain = 0
KWA1 240308Z 04014KT 19/15 A2994 RMK A01 T01880147  RH  077%=      5-min Rain = 0
KWA1 240309Z 04014KT 19/15 A2994 RMK A01 T01870146  RH  077%=      5-min Rain = 0
KWA1 240310Z 04012KT 19/15 A2994 RMK A01 T01870146  RH  077%=      5-min Rain = 0
KWA1 240311Z 03011KT 19/15 A2994 RMK A01 T01860146  RH  077%=      5-min Rain = 0
KWA1 240312Z 03011KT 19/15 A2994 RMK A01 T01860146  RH  078%=      5-min Rain = 0
KWA1 240313Z 03012KT 19/15 A2994 RMK A01 T01860147  RH  078%=      5-min Rain = 0
KWA1 240314Z 04011KT 19/15 A2994 RMK A01 T01850146  RH  078%=      5-min Rain = 0
KWA1 240315Z 03011KT 19/15 A2994 RMK A01 T01850146  RH  078%=      5-min Rain = 0
KWA1 240316Z 02011KT 19/15 A2994 RMK A01 T01850146  RH  078%=      5-min Rain = 0
KWA1 240317Z 02011KT 19/15 A2994 RMK A01 T01850146  RH  078%=      5-min Rain = 0
KWA1 240318Z 02010KT 18/15 A2994 RMK A01 T01840146  RH  078%=      5-min Rain = 0
KWA1 240319Z 03009KT 18/15 A2994 RMK A01 T01840146  RH  078%=      5-min Rain = 0
KWA1 240320Z 02009KT 18/15 A2994 RMK A01 T01840145  RH  078%=      5-min Rain = 0
KWA1 240321Z 02008KT 18/15 A2994 RMK A01 T01840146  RH  078%=      5-min Rain = 0
KWA1 240322Z 02009KT 18/15 A2994 RMK A01 T01840146  RH  079%=      5-min Rain = 0
KWA1 240323Z 02009KT 18/15 A2994 RMK A01 T01830146  RH  079%=      5-min Rain = 0
KWA1 240324Z 02008KT 18/15 A2994 RMK A01 T01830145  RH  079%=      5-min Rain = 0
KWA1 240325Z 01005KT 18/15 A2994 RMK A01 T01830146  RH  079%=      5-min Rain = 0
KWA1 240326Z 01005KT 18/15 A2994 RMK A01 T01830146  RH  079%=      5-min Rain = 0
KWA1 240327Z 01006KT 18/15 A2994 RMK A01 T01830146  RH  079%=      5-min Rain = 0
KWA1 240328Z 02007KT 18/15 A2994 RMK A01 T01840146  RH  078%=      5-min Rain = 0
KWA1 240329Z 02008KT 18/15 A2994 RMK A01 T01840145  RH  078%=      5-min Rain = 0
KWA1 240330Z 02008KT 18/15 A2994 RMK A01 T01840146  RH  078%=      5-min Rain = 0
KWA1 240331Z 03007KT 18/15 A2994 RMK A01 T01840146  RH  078%=      5-min Rain = 0
KWA1 240332Z 02007KT 18/15 A2994 RMK A01 T01840146  RH  078%=      5-min Rain = 0
KWA1 240333Z 03006KT 18/15 A2994 RMK A01 T01840146  RH  078%=      5-min Rain = 0
KWA1 240334Z 04005KT 18/15 A2994 RMK A01 T01840146  RH  079%=      5-min Rain = 0
KWA1 240335Z 04005KT 18/15 A2994 RMK A01 T01840146  RH  079%=      5-min Rain = 0
KWA1 240336Z 04006KT 18/15 A2994 RMK A01 T01840146  RH  079%=      5-min Rain = 0
KWA1 240337Z 04005KT 18/15 A2994 RMK A01 T01840146  RH  079%=      5-min Rain = 0
KWA1 240338Z 03005KT 18/15 A2994 RMK A01 T01830146  RH  079%=      5-min Rain = 0
KWA1 240339Z 04006KT 18/15 A2994 RMK A01 T01840146  RH  079%=      5-min Rain = 0
KWA1 240340Z 05006KT 18/15 A2993 RMK A01 T01830145  RH  078%=      5-min Rain = 0
KWA1 240341Z 05006KT 18/15 A2993 RMK A01 T01830145  RH  078%=      5-min Rain = 0
KWA1 240342Z 05006KT 18/15 A2993 RMK A01 T01830145  RH  079%=      5-min Rain = 0
KWA1 240343Z 05004KT 18/15 A2993 RMK A01 T01840146  RH  079%=      5-min Rain = 0
KWA1 240344Z 04004KT 18/15 A2993 RMK A01 T01830146  RH  079%=      5-min Rain = 0
KWA1 240345Z 06003KT 18/15 A2993 RMK A01 T01830146  RH  079%=      5-min Rain = 0
KWA1 240346Z 05004KT 18/15 A2993 RMK A01 T01830146  RH  079%=      5-min Rain = 0
KWA1 240347Z 03004KT 18/15 A2993 RMK A01 T01840146  RH  079%=      5-min Rain = 0
KWA1 240348Z 03003KT 18/15 A2993 RMK A01 T01840146  RH  078%=      5-min Rain = 0
KWA1 240349Z 03003KT 18/15 A2993 RMK A01 T01840146  RH  079%=      5-min Rain = 0
KWA1 240350Z 03003KT 18/15 A2993 RMK A01 T01830146  RH  079%=      5-min Rain = 0
KWA1 240351Z 04004KT 18/15 A2993 RMK A01 T01830146  RH  079%=      5-min Rain = 0
KWA1 240352Z 04005KT 18/15 A2993 RMK A01 T01830145  RH  078%=      5-min Rain = 0
KWA1 240353Z 04005KT 18/15 A2993 RMK A01 T01830145  RH  078%=      5-min Rain = 0
KWA1 240354Z 03006KT 18/15 A2993 RMK A01 T01830145  RH  078%=      5-min Rain = 0
KWA1 240355Z 03006KT 18/15 A2993 RMK A01 T01830145  RH  078%=      5-min Rain = 0
KWA1 240356Z 03006KT 18/15 A2993 RMK A01 T01830145  RH  078%=      5-min Rain = 0
KWA1 240357Z 03006KT 18/15 A2993 RMK A01 T01830145  RH  078%=      5-min Rain = 0
KWA1 240358Z 02007KT 18/14 A2993 RMK A01 T01830144  RH  078%=      5-min Rain = 0
KWA1 240359Z 02008KT 18/14 A2993 RMK A01 T01830144  RH  078%=      5-min Rain = 0
KWA1 240400Z 03008KT 18/15 A2993 RMK A01 T01830145  RH  078%=      5-min Rain = 0
KWA1 240401Z 03008KT 18/15 A2993 RMK A01 T01830145  RH  078%=      5-min Rain = 0
KWA1 240402Z 03007KT 18/15 A2993 RMK A01 T01830145  RH  079%=      5-min Rain = 0
KWA1 240403Z 03007KT 18/15 A2993 RMK A01 T01830145  RH  079%=      5-min Rain = 0
KWA1 240404Z 03007KT 18/15 A2993 RMK A01 T01830145  RH  079%=      5-min Rain = 0
KWA1 240405Z 03007KT 18/15 A2993 RMK A01 T01830145  RH  078%=      5-min Rain = 0
KWA1 240406Z 03007KT 18/15 A2993 RMK A01 T01830146  RH  079%=      5-min Rain = 0
KWA1 240407Z 03006KT 18/15 A2994 RMK A01 T01830146  RH  079%=      5-min Rain = 0
KWA1 240408Z 02006KT 18/15 A2994 RMK A01 T01830145  RH  079%=      5-min Rain = 0
KWA1 240409Z 02006KT 18/15 A2994 RMK A01 T01830146  RH  079%=      5-min Rain = 0
KWA1 240410Z 02005KT 18/15 A2994 RMK A01 T01830146  RH  079%=      5-min Rain = 0
KWA1 240411Z 02006KT 18/15 A2994 RMK A01 T01830146  RH  079%=      5-min Rain = 0
KWA1 240412Z 02007KT 18/15 A2994 RMK A01 T01830146  RH  079%=      5-min Rain = 0
KWA1 240413Z 01007KT 18/15 A2994 RMK A01 T01830146  RH  079%=      5-min Rain = 0
KWA1 240414Z 01007KT 18/15 A2994 RMK A01 T01830146  RH  079%=      5-min Rain = 0
KWA1 240415Z 01008KT 18/15 A2994 RMK A01 T01830146  RH  079%=      5-min Rain = 0
KWA1 240416Z 01009KT 18/15 A2994 RMK A01 T01830146  RH  079%=      5-min Rain = 0
KWA1 240417Z 01010KT 18/15 A2994 RMK A01 T01830146  RH  079%=      5-min Rain = 0
KWA1 240418Z 01011KT 18/15 A2994 RMK A01 T01830146  RH  079%=      5-min Rain = 0
KWA1 240419Z 00011KT 18/15 A2994 RMK A01 T01820147  RH  079%=      5-min Rain = 0
KWA1 240420Z 36011KT 18/15 A2995 RMK A01 T01820147  RH  080%=      5-min Rain = 0
KWA1 240421Z 35012KT 18/15 A2995 RMK A01 T01820147  RH  080%=      5-min Rain = 0
KWA1 240422Z 35014KT 18/15 A2995 RMK A01 T01820147  RH  080%=      5-min Rain = 0
KWA1 240423Z 36013KT 18/15 A2995 RMK A01 T01820147  RH  080%=      5-min Rain = 0
KWA1 240424Z 35016KT 18/15 A2995 RMK A01 T01820148  RH  080%=      5-min Rain = 0
KWA1 240425Z 35014KT 18/15 A2996 RMK A01 T01810148  RH  081%=      5-min Rain = 0
KWA1 240426Z 35017KT 18/15 A2996 RMK A01 T01810149  RH  081%=      5-min Rain = 0
KWA1 240427Z 35019KT 18/15 A2996 RMK A01 T01800150  RH  083%=      5-min Rain = 0
KWA1 240428Z 35019KT 18/15 A2996 RMK A01 T01770150  RH  084%=      5-min Rain = 0
KWA1 240429Z 35020KT 18/15 A2996 RMK A01 T01760151  RH  085%=      5-min Rain = 0
KWA1 240430Z 36018KT 18/15 A2996 RMK A01 T01750151  RH  086%=      5-min Rain = 0
KWA1 240431Z 35017KT 17/15 A2996 RMK A01 T01740151  RH  086%=      5-min Rain = 0
KWA1 240432Z 35015KT 17/15 A2997 RMK A01 T01740151  RH  087%=      5-min Rain = 0
KWA1 240433Z 36011KT 17/15 A2997 RMK A01 T01730151  RH  087%=      5-min Rain = 0
KWA1 240434Z 01011KT 17/15 A2997 RMK A01 T01730151  RH  087%=      5-min Rain = 0
KWA1 240435Z 03009KT 17/15 A2997 RMK A01 T01730152  RH  087%=      5-min Rain = 0
KWA1 240436Z 05010KT 17/15 A2997 RMK A01 T01730152  RH  087%=      5-min Rain = 0
KWA1 240437Z 02015G20KT 17/15 A2997 RMK A01 T01730151  RH  087%=      5-min Rain = 0
KWA1 240438Z 00017G24KT 18/15 A2997 RMK A01 T01750151  RH  085%=      5-min Rain = 0
KWA1 240439Z 35021KT 18/15 A2996 RMK A01 T01760150  RH  085%=      5-min Rain = 0
KWA1 240440Z 36020KT 18/15 A2996 RMK A01 T01770151  RH  085%=      5-min Rain = 0
KWA1 240441Z 00020KT 18/15 A2996 RMK A01 T01770151  RH  085%=      5-min Rain = 0
KWA1 240442Z 36022KT 18/15 A2997 RMK A01 T01760150  RH  085%=      5-min Rain = 0
KWA1 240443Z 35021KT 18/15 A2997 RMK A01 T01760150  RH  085%=      5-min Rain = 0
KWA1 240444Z 35019KT 18/15 A2997 RMK A01 T01760150  RH  085%=      5-min Rain = 0
KWA1 240445Z 36020KT 18/15 A2997 RMK A01 T01750149  RH  085%=      5-min Rain = 0
KWA1 240446Z 00019KT 18/15 A2997 RMK A01 T01760148  RH  084%=      5-min Rain = 0
KWA1 240447Z 00020G27KT 18/15 A2997 RMK A01 T01760148  RH  084%=      5-min Rain = 0
KWA1 240448Z 00018KT 18/15 A2998 RMK A01 T01750147  RH  083%=      5-min Rain = 0
KWA1 240449Z 01016KT 18/15 A2998 RMK A01 T01750147  RH  083%=      5-min Rain = 0
KWA1 240450Z 00016KT 18/15 A2998 RMK A01 T01750147  RH  083%=      5-min Rain = 0
KWA1 240451Z 01015KT 18/15 A2998 RMK A01 T01750147  RH  084%=      5-min Rain = 0
KWA1 240452Z 01020G25KT 17/15 A2998 RMK A01 T01740147  RH  084%=      5-min Rain = 0
KWA1 240453Z 02020KT 17/15 A2998 RMK A01 T01730146  RH  084%=      5-min Rain = 0
KWA1 240454Z 02022KT 17/15 A2998 RMK A01 T01730146  RH  084%=      5-min Rain = 0
KWA1 240455Z 01021KT 17/14 A2998 RMK A01 T01730144  RH  083%=      5-min Rain = 0
KWA1 240456Z 01017KT 17/14 A2998 RMK A01 T01730144  RH  083%=      5-min Rain = 0
KWA1 240457Z 02016KT 17/15 A2998 RMK A01 T01720146  RH  084%=      5-min Rain = 0
KWA1 240458Z 02017KT 17/15 A2998 RMK A01 T01720146  RH  085%=      5-min Rain = 0
KWA1 240459Z 03016KT 17/15 A2998 RMK A01 T01710147  RH  086%=      5-min Rain = 0

Page generated in 0.203 seconds.